FW6030 Weather Reports


time (UTC)temp
F
wind
direction
speed
knots
gust
knots
rain 1hr
in
rain 24hr
in
rain mn
in
humidity
%
barometer
mb
20260906013118 90 360 5.2 11.3 0.00 0.00 0.00 57 1012.0
20260906013038 90 360 5.2 11.3 0.00 0.00 0.00 57 1012.1
20260906012918 90 360 6.1 11.3 0.00 0.00 0.00 57 1012.1
20260906012820 90 360 7.0 11.3 0.00 0.00 0.00 56 1012.1
20260906012719 90 360 7.8 12.2 0.00 0.00 0.00 56 1012.1
20260906012620 90 360 7.8 12.2 0.00 0.00 0.00 56 1012.1
20260906012524 90 360 7.8 12.2 0.00 0.00 0.00 56 1012.1
20260906012425 90 360 7.8 12.2 0.00 0.00 0.00 56 1012.1
20260906012347 90 161 7.0 12.2 0.00 0.00 0.00 56 1012.1
20260906012245 90 360 7.0 12.2 0.00 0.00 0.00 56 1012.1
20260906012145 90 360 7.0 12.2 0.00 0.00 0.00 56 1012.1
20260906012024 90 360 6.1 12.2 0.00 0.00 0.00 56 1012.1
20260906011945 90 360 7.8 12.2 0.00 0.00 0.00 56 1012.1
20260906011845 90 360 7.8 12.2 0.00 0.00 0.00 56 1012.1
20260906011722 91 360 7.8 12.2 0.00 0.00 0.00 56 1012.1
20260906011623 91 360 7.8 13.9 0.00 0.00 0.00 56 1012.2
20260906011527 91 360 7.0 15.6 0.00 0.00 0.00 55 1012.1
20260906011428 91 360 6.1 15.6 0.00 0.00 0.00 55 1012.1
20260906011348 91 360 7.0 15.6 0.00 0.00 0.00 55 1012.1
20260906011227 91 360 7.8 15.6 0.00 0.00 0.00 55 1012.0
20260906011128 91 360 7.8 15.6 0.00 0.00 0.00 55 1012.1
20260906011047 91 360 8.7 15.6 0.00 0.00 0.00 54 1012.1
20260906010947 91 360 10.4 15.6 0.00 0.00 0.00 54 1012.1
20260906010847 91 360 8.7 15.6 0.00 0.00 0.00 54 1012.0
20260906010731 92 360 9.6 15.6 0.00 0.00 0.00 54 1012.1
20260906010632 92 360 10.4 15.6 0.00 0.00 0.00 53 1012.1
20260906010533 92 360 9.6 15.6 0.00 0.00 0.00 53 1012.1
20260906010433 92 360 9.6 15.6 0.00 0.00 0.00 52 1012.1
20260906010334 92 360 8.7 15.6 0.00 0.00 0.00 52 1012.1
20260906010232 92 360 7.0 15.6 0.00 0.00 0.00 52 1012.0
20260906010134 93 360 7.0 14.8 0.00 0.00 0.00 51 1012.0
20260906010039 93 360 7.8 14.8 0.00 0.00 0.00 51 1011.9
20260906005919 93 135 8.7 14.8 0.00 0.00 0.00 50 1012.0
20260906005821 93 360 8.7 14.8 0.00 0.00 0.00 50 1012.0
20260906005721 93 360 8.7 14.8 0.00 0.00 0.00 50 1011.9
20260906005622 93 360 8.7 13.9 0.00 0.00 0.00 49 1012.0
20260906005523 93 360 8.7 13.9 0.00 0.00 0.00 49 1012.0
20260906005423 93 360 7.8 13.9 0.00 0.00 0.00 49 1012.0
20260906005328 93 360 7.8 13.9 0.00 0.00 0.00 49 1012.0
20260906005230 93 360 7.8 13.9 0.00 0.00 0.00 49 1011.8
20260906005128 93 360 7.8 13.9 0.00 0.00 0.00 49 1011.9
20260906005029 93 360 8.7 13.9 0.00 0.00 0.00 49 1011.9
20260906004950 94 360 8.7 13.9 0.00 0.00 0.00 48 1011.8
20260906004829 94 360 8.7 13.9 0.00 0.00 0.00 49 1011.8
20260906004750 94 360 7.8 13.9 0.00 0.00 0.00 49 1011.8
20260906004628 94 360 7.0 13.9 0.00 0.00 0.00 49 1011.9
20260906004553 94 360 7.0 13.9 0.00 0.00 0.00 49 1011.9
20260906004432 94 360 7.0 13.9 0.00 0.00 0.00 48 1011.8
20260906004332 94 360 7.8 13.9 0.00 0.00 0.00 48 1011.8
20260906004233 94 360 7.8 13.9 0.00 0.00 0.00 48 1011.8
20260906004134 94 360 7.0 13.9 0.00 0.00 0.00 48 1011.8
20260906004034 94 360 6.1 14.8 0.00 0.00 0.00 48 1011.8
20260906003919 94 360 6.1 18.2 0.00 0.00 0.00 48 1011.8
20260906003819 94 360 7.0 18.2 0.00 0.00 0.00 48 1011.9
20260906003719 94 360 7.0 18.2 0.00 0.00 0.00 47 1011.8
20260906003620 94 360 7.0 18.2 0.00 0.00 0.00 47 1011.8
20260906003521 94 360 8.7 18.2 0.00 0.00 0.00 47 1011.8
20260906003422 94 360 8.7 18.2 0.00 0.00 0.00 47 1011.8
20260906003322 95 360 8.7 18.2 0.00 0.00 0.00 47 1011.8
20260906003227 95 360 7.8 18.2 0.00 0.00 0.00 47 1011.7
20260906003146 95 360 6.1 18.2 0.00 0.00 0.00 46 1011.8
20260906003026 95 360 3.5 7.8 0.00 0.00 0.00 45 1011.8
20260906002927 95 360 3.5 7.8 0.00 0.00 0.00 45 1011.8
20260906002829 95 360 3.5 7.8 0.00 0.00 0.00 45 1011.7
20260906002728 95 360 3.5 7.8 0.00 0.00 0.00 45 1011.7
20260906002628 95 360 4.3 7.8 0.00 0.00 0.00 45 1011.7
20260906002553 95 360 4.3 7.8 0.00 0.00 0.00 45 1011.7
20260906002433 95 360 4.3 7.8 0.00 0.00 0.00 44 1011.6
20260906002334 95 360 4.3 7.8 0.00 0.00 0.00 44 1011.7
20260906002234 95 360 3.5 7.0 0.00 0.00 0.00 44 1011.6
20260906002135 95 360 2.6 7.8 0.00 0.00 0.00 44 1011.7
20260906002034 95 360 2.6 7.8 0.00 0.00 0.00 44 1011.6
20260906001919 95 360 2.6 7.8 0.00 0.00 0.00 45 1011.7
20260906001819 95 148 3.5 7.8 0.00 0.00 0.00 46 1011.7
20260906001739 95 360 4.3 7.8 0.00 0.00 0.00 45 1011.7
20260906001619 95 360 4.3 7.8 0.00 0.00 0.00 44 1011.6
20260906001519 95 360 5.2 7.8 0.00 0.00 0.00 45 1011.7
20260906001419 95 360 5.2 7.8 0.00 0.00 0.00 45 1011.7
20260906001340 95 360 5.2 7.8 0.00 0.00 0.00 44 1011.8
20260906001220 95 360 4.3 7.8 0.00 0.00 0.00 45 1011.7
20260906001125 95 360 4.3 7.0 0.00 0.00 0.00 44 1011.7
20260906001025 95 360 4.3 7.0 0.00 0.00 0.00 45 1011.7
20260906000925 95 360 4.3 7.0 0.00 0.00 0.00 44 1011.7
20260906000826 95 360 3.5 7.8 0.00 0.00 0.00 45 1011.6
20260906000727 95 360 3.5 7.8 0.00 0.00 0.00 45 1011.7
20260906000628 95 360 3.5 7.8 0.00 0.00 0.00 45 1011.7
20260906000549 95 360 3.5 7.8 0.00 0.00 0.00 45 1011.7
20260906000434 95 360 3.5 7.8 0.00 0.00 0.00 45 1011.7
20260906000333 95 360 3.5 7.8 0.00 0.00 0.00 45 1011.7
20260906000234 95 360 3.5 7.8 0.00 0.00 0.00 45 1011.6
20260906000134 95 126 4.3 8.7 0.00 0.00 0.00 45 1011.6
20260906000034 95 360 5.2 8.7 0.00 0.00 0.00 45 1011.6
20260905235935 95 360 4.3 8.7 0.00 0.00 0.00 45 1011.6
20260905235820 95 360 4.3 8.7 0.00 0.00 0.00 45 1011.7
20260905235720 95 360 4.3 8.7 0.00 0.00 0.00 45 1011.6
20260905235621 95 360 4.3 8.7 0.00 0.00 0.00 45 1011.7
20260905235522 95 360 5.2 8.7 0.00 0.00 0.00 45 1011.7
20260905235422 95 360 4.3 8.7 0.00 0.00 0.00 45 1011.6
20260905235323 95 360 4.3 8.7 0.00 0.00 0.00 46 1011.6
20260905235244 95 360 3.5 8.7 0.00 0.00 0.00 46 1011.7
20260905235127 95 360 2.6 7.0 0.00 0.00 0.00 46 1011.7
20260905235028 95 360 3.5 7.0 0.00 0.00 0.00 46 1011.7
20260905234929 95 360 3.5 7.8 0.00 0.00 0.00 46 1011.6
20260905234849 95 360 3.5 8.7 0.00 0.00 0.00 45 1011.7
20260905234729 95 360 3.5 8.7 0.00 0.00 0.00 45 1011.7
20260905234631 95 360 3.5 8.7 0.00 0.00 0.00 45 1011.6
20260905234531 95 360 4.3 8.7 0.00 0.00 0.00 45 1011.6
20260905234416 95 360 4.3 8.7 0.00 0.00 0.00 45 1011.6
20260905234316 95 360 5.2 8.7 0.00 0.00 0.00 45 1011.6
20260905234217 95 360 5.2 8.7 0.00 0.00 0.00 45 1011.7
20260905234117 95 360 4.3 8.7 0.00 0.00 0.00 45 1011.6
20260905234018 95 360 4.3 8.7 0.00 0.00 0.00 45 1011.6
20260905233917 95 360 4.3 8.7 0.00 0.00 0.00 45 1011.6
20260905233822 95 360 5.2 8.7 0.00 0.00 0.00 45 1011.7
20260905233721 95 360 5.2 8.7 0.00 0.00 0.00 44 1011.7
20260905233622 95 360 5.2 9.6 0.00 0.00 0.00 44 1011.7
20260905233543 95 360 5.2 9.6 0.00 0.00 0.00 44 1011.7
20260905233442 95 360 6.1 9.6 0.00 0.00 0.00 44 1011.6
20260905233322 95 360 5.2 9.6 0.00 0.00 0.00 44 1011.7
20260905233242 95 360 5.2 9.6 0.00 0.00 0.00 44 1011.6
20260905233123 95 360 5.2 9.6 0.00 0.00 0.00 44 1011.6
20260905233023 96 360 5.2 9.6 0.00 0.00 0.00 43 1011.6
20260905232948 96 360 5.2 9.6 0.00 0.00 0.00 43 1011.5
20260905232845 96 360 6.1 9.6 0.00 0.00 0.00 43 1011.7
20260905232722 96 360 6.1 9.6 0.00 0.00 0.00 43 1011.6
20260905232623 96 360 6.1 9.6 0.00 0.00 0.00 42 1011.5
20260905232524 96 360 5.2 9.6 0.00 0.00 0.00 43 1011.6
20260905232424 96 360 4.3 9.6 0.00 0.00 0.00 43 1011.6
20260905232325 96 360 4.3 9.6 0.00 0.00 0.00 43 1011.6
20260905232225 96 360 4.3 9.6 0.00 0.00 0.00 43 1011.6
20260905232130 96 360 5.2 9.6 0.00 0.00 0.00 42 1011.6
20260905232030 96 73 5.2 9.6 0.00 0.00 0.00 42 1011.6
20260905231930 97 360 4.3 9.6 0.00 0.00 0.00 41 1011.6
20260905231831 97 86 5.2 9.6 0.00 0.00 0.00 41 1011.6
20260905231732 97 360 5.2 9.6 0.00 0.00 0.00 42 1011.6
20260905231652 97 360 5.2 9.6 0.00 0.00 0.00 42 1011.7
20260905231531 97 360 5.2 9.6 0.00 0.00 0.00 42 1011.7
20260905231456 97 360 3.5 7.8 0.00 0.00 0.00 42 1011.7
20260905231336 96 360 2.6 7.0 0.00 0.00 0.00 42 1011.7
20260905231235 96 360 2.6 5.2 0.00 0.00 0.00 42 1011.6
20260905231136 96 360 2.6 5.2 0.00 0.00 0.00 41 1011.6
20260905231017 96 360 3.5 5.2 0.00 0.00 0.00 41 1011.7
20260905230918 96 360 3.5 8.7 0.00 0.00 0.00 41 1011.7
20260905230818 96 360 4.3 8.7 0.00 0.00 0.00 41 1011.6
20260905230723 97 360 3.5 8.7 0.00 0.00 0.00 41 1011.6
20260905230626 97 99 3.5 8.7 0.00 0.00 0.00 41 1011.6
20260905230526 97 360 3.5 8.7 0.00 0.00 0.00 41 1011.6
20260905230426 97 360 4.3 8.7 0.00 0.00 0.00 41 1011.6
20260905230326 97 360 4.3 8.7 0.00 0.00 0.00 41 1011.6
20260905230227 97 360 4.3 8.7 0.00 0.00 0.00 41 1011.6
20260905230128 97 360 3.5 7.8 0.00 0.00 0.00 41 1011.6
20260905230031 97 360 3.5 5.2 0.00 0.00 0.00 41 1011.6
20260905225932 97 360 2.6 8.7 0.00 0.00 0.00 41 1011.6
20260905225854 97 360 2.6 8.7 0.00 0.00 0.00 41 1011.6
20260905225732 97 360 2.6 8.7 0.00 0.00 0.00 41 1011.6
20260905225633 97 360 2.6 8.7 0.00 0.00 0.00 40 1011.6
20260905225533 97 140 2.6 8.7 0.00 0.00 0.00 40 1011.5
20260905225417 97 360 3.5 8.7 0.00 0.00 0.00 40 1011.6
20260905225318 97 360 4.3 8.7 0.00 0.00 0.00 40 1011.6
20260905225219 97 360 4.3 8.7 0.00 0.00 0.00 40 1011.5
20260905225119 97 360 4.3 8.7 0.00 0.00 0.00 40 1011.6
20260905225019 97 360 3.5 7.0 0.00 0.00 0.00 40 1011.6
20260905224919 97 360 2.6 5.2 0.00 0.00 0.00 40 1011.6
20260905224819 97 360 2.6 5.2 0.00 0.00 0.00 40 1011.6
20260905224725 97 360 1.7 5.2 0.00 0.00 0.00 40 1011.6
20260905224624 97 360 0.9 4.3 0.00 0.00 0.00 40 1011.6
20260905224524 97 360 0.9 3.5 0.00 0.00 0.00 40 1011.5
20260905224425 96 360 1.7 3.5 0.00 0.00 0.00 40 1011.6
20260905224324 96 87 1.7 3.5 0.00 0.00 0.00 40 1011.6
20260905224225 96 88 2.6 4.3 0.00 0.00 0.00 40 1011.6
20260905224126 96 86 2.6 4.3 0.00 0.00 0.00 40 1011.6
20260905224031 96 87 2.6 5.2 0.00 0.00 0.00 40 1011.5
20260905223932 96 89 2.6 5.2 0.00 0.00 0.00 40 1011.5
20260905223832 96 360 1.7 5.2 0.00 0.00 0.00 40 1011.5
20260905223733 96 360 1.7 5.2 0.00 0.00 0.00 40 1011.5
20260905223632 96 112 2.6 5.2 0.00 0.00 0.00 40 1011.6
20260905223533 96 360 2.6 7.0 0.00 0.00 0.00 39 1011.4
20260905223417 97 113 3.5 7.0 0.00 0.00 0.00 40 1011.5
20260905223317 97 114 3.5 7.0 0.00 0.00 0.00 39 1011.5
20260905223218 97 360 3.5 7.0 0.00 0.00 0.00 40 1011.5
20260905223119 97 360 2.6 7.0 0.00 0.00 0.00 39 1011.5
20260905223020 98 360 1.7 7.0 0.00 0.00 0.00 39 1011.6
20260905222920 98 360 1.7 7.0 0.00 0.00 0.00 39 1011.6
20260905222822 98 360 1.7 7.0 0.00 0.00 0.00 39 1011.6
20260905222745 98 121 2.6 7.0 0.00 0.00 0.00 39 1011.7
20260905222625 98 360 3.5 7.0 0.00 0.00 0.00 40 1011.7
20260905222526 98 86 3.5 7.0 0.00 0.00 0.00 40 1011.6
20260905222425 98 360 2.6 5.2 0.00 0.00 0.00 40 1011.6
20260905222326 98 360 2.6 5.2 0.00 0.00 0.00 39 1011.5
20260905222227 98 360 1.7 7.0 0.00 0.00 0.00 39 1011.6
20260905222127 98 360 1.7 7.0 0.00 0.00 0.00 40 1011.6
20260905222031 98 360 1.7 7.0 0.00 0.00 0.00 39 1011.7
20260905221952 98 360 1.7 7.0 0.00 0.00 0.00 39 1011.7
20260905221830 98 360 2.6 7.0 0.00 0.00 0.00 39 1011.6
20260905221731 98 360 3.5 7.0 0.00 0.00 0.00 39 1011.7
20260905221632 98 360 3.5 7.0 0.00 0.00 0.00 39 1011.7
20260905221533 98 360 3.5 7.0 0.00 0.00 0.00 39 1011.7
20260905221433 98 360 2.6 7.0 0.00 0.00 0.00 39 1011.8
20260905221318 98 360 1.7 4.3 0.00 0.00 0.00 38 1011.7
20260905221219 98 360 1.7 4.3 0.00 0.00 0.00 38 1011.7
20260905221120 98 360 1.7 4.3 0.00 0.00 0.00 38 1011.8
20260905221021 98 360 1.7 4.3 0.00 0.00 0.00 39 1011.8
20260905220921 99 360 1.7 7.0 0.00 0.00 0.00 39 1011.8
20260905220821 99 360 1.7 7.0 0.00 0.00 0.00 39 1011.7
20260905220725 98 360 1.7 7.0 0.00 0.00 0.00 39 1011.7
20260905220626 98 360 2.6 7.0 0.00 0.00 0.00 39 1011.9
20260905220527 98 360 2.6 7.0 0.00 0.00 0.00 40 1011.8
20260905220446 98 360 2.6 7.0 0.00 0.00 0.00 40 1011.7
20260905220326 98 360 3.5 7.0 0.00 0.00 0.00 40 1011.8
20260905220226 98 360 3.5 7.0 0.00 0.00 0.00 39 1011.8
20260905220127 98 360 3.5 7.0 0.00 0.00 0.00 40 1011.8
20260905220032 98 360 1.7 7.0 0.00 0.00 0.00 39 1011.8
20260905215932 97 360 1.7 7.0 0.00 0.00 0.00 39 1011.8
20260905215835 97 360 2.6 7.8 0.00 0.00 0.00 39 1011.8
20260905215735 97 360 2.6 7.8 0.00 0.00 0.00 39 1011.8
20260905215636 98 360 2.6 7.8 0.00 0.00 0.00 39 1011.8
20260905215535 98 360 1.7 10.4 0.00 0.00 0.00 40 1011.8
20260905215435 97 360 2.6 10.4 0.00 0.00 0.00 40 1011.8
20260905215319 97 360 3.5 10.4 0.00 0.00 0.00 40 1011.8
20260905215220 97 360 4.3 10.4 0.00 0.00 0.00 39 1011.9
20260905215120 97 360 5.2 10.4 0.00 0.00 0.00 40 1011.8
20260905215021 97 360 5.2 10.4 0.00 0.00 0.00 40 1011.9
20260905214921 97 360 7.0 10.4 0.00 0.00 0.00 40 1011.9
20260905214821 97 360 7.8 10.4 0.00 0.00 0.00 39 1011.9
20260905214719 97 360 7.8 10.4 0.00 0.00 0.00 39 1011.9
20260905214624 98 360 7.0 10.4 0.00 0.00 0.00 39 1011.8
20260905214524 98 360 5.2 8.7 0.00 0.00 0.00 39 1011.9
20260905214425 99 360 4.3 7.0 0.00 0.00 0.00 38 1011.8
20260905214326 99 360 3.5 5.2 0.00 0.00 0.00 38 1011.8
20260905214226 99 360 2.6 5.2 0.00 0.00 0.00 38 1011.8
20260905214127 99 360 1.7 5.2 0.00 0.00 0.00 38 1011.9
20260905214028 99 360 0.9 5.2 0.00 0.00 0.00 38 1011.8
20260905213931 99 360 1.7 5.2 0.00 0.00 0.00 39 1011.8
20260905213831 98 360 1.7 5.2 0.00 0.00 0.00 39 1011.9
20260905213731 98 360 1.7 5.2 0.00 0.00 0.00 39 1011.8
20260905213652 98 360 2.6 4.3 0.00 0.00 0.00 39 1011.9
20260905213552 98 360 2.6 4.3 0.00 0.00 0.00 39 1011.9
20260905213451 98 360 1.7 7.0 0.00 0.00 0.00 39 1011.9
20260905213331 98 360 1.7 7.0 0.00 0.00 0.00 39 1011.9
20260905213232 98 360 1.7 7.0 0.00 0.00 0.00 39 1011.9
20260905213117 97 360 1.7 7.0 0.00 0.00 0.00 39 1011.9
20260905213017 97 360 2.6 9.6 0.00 0.00 0.00 39 1011.8
20260905212919 97 360 2.6 9.6 0.00 0.00 0.00 39 1011.9
20260905212819 97 360 3.5 9.6 0.00 0.00 0.00 39 1011.9
20260905212739 97 360 3.5 9.6 0.00 0.00 0.00 39 1011.9
20260905212617 97 360 2.6 9.6 0.00 0.00 0.00 40 1011.8
20260905212537 97 360 2.6 9.6 0.00 0.00 0.00 40 1011.9
20260905212417 97 360 4.3 9.6 0.00 0.00 0.00 40 1011.9
20260905212320 97 360 5.2 9.6 0.00 0.00 0.00 40 1011.8
20260905212220 97 360 5.2 9.6 0.00 0.00 0.00 39 1011.9
20260905212118 97 360 3.5 10.4 0.00 0.00 0.00 40 1011.9
20260905212018 97 360 3.5 10.4 0.00 0.00 0.00 39 1011.8
20260905211938 97 107 4.3 12.2 0.00 0.00 0.00 40 1011.9
20260905211857 97 360 5.2 12.2 0.00 0.00 0.00 40 1011.9
20260905211736 97 360 5.2 12.2 0.00 0.00 0.00 39 1011.9
20260905211621 97 360 4.3 12.2 0.00 0.00 0.00 40 1011.9
20260905211521 97 360 2.6 12.2 0.00 0.00 0.00 41 1012.0
20260905211422 96 360 3.5 12.2 0.00 0.00 0.00 41 1011.9
20260905211322 96 360 5.2 12.2 0.00 0.00 0.00 41 1012.0
20260905211223 96 360 6.1 12.2 0.00 0.00 0.00 41 1012.1
20260905211123 97 360 6.1 12.2 0.00 0.00 0.00 41 1012.0
20260905211024 97 360 5.2 9.6 0.00 0.00 0.00 40 1012.1
20260905210929 97 360 4.3 11.3 0.00 0.00 0.00 40 1012.1
20260905210849 97 360 3.5 11.3 0.00 0.00 0.00 40 1012.1
20260905210727 97 360 2.6 11.3 0.00 0.00 0.00 40 1012.0
20260905210628 97 360 2.6 11.3 0.00 0.00 0.00 41 1012.0
20260905210528 97 360 2.6 11.3 0.00 0.00 0.00 41 1012.0
20260905210430 97 360 3.5 11.3 0.00 0.00 0.00 41 1012.0
20260905210330 97 360 2.6 11.3 0.00 0.00 0.00 41 1012.0
20260905210216 97 360 2.6 11.3 0.00 0.00 0.00 41 1012.1
20260905210116 97 360 3.5 11.3 0.00 0.00 0.00 41 1012.1
20260905210017 97 360 3.5 11.3 0.00 0.00 0.00 41 1012.1
20260905205917 97 360 3.5 9.6 0.00 0.00 0.00 41 1012.1
20260905205818 97 360 4.3 9.6 0.00 0.00 0.00 42 1012.1
20260905205718 97 360 4.3 13.0 0.00 0.00 0.00 41 1012.1
20260905205619 97 360 3.5 13.0 0.00 0.00 0.00 41 1012.1
20260905205523 97 360 2.6 13.0 0.00 0.00 0.00 41 1012.1
20260905205423 97 360 1.7 13.0 0.00 0.00 0.00 42 1012.1
20260905205323 97 360 3.5 13.0 0.00 0.00 0.00 41 1012.2
20260905205225 97 360 3.5 13.0 0.00 0.00 0.00 42 1012.3
20260905205126 97 360 5.2 13.0 0.00 0.00 0.00 41 1012.3
20260905205026 96 360 6.1 13.0 0.00 0.00 0.00 42 1012.3
20260905204946 97 360 5.2 13.0 0.00 0.00 0.00 41 1012.3
20260905204849 97 360 3.5 13.0 0.00 0.00 0.00 41 1012.3
20260905204749 97 360 2.6 7.0 0.00 0.00 0.00 42 1012.3
20260905204629 97 360 2.6 7.0 0.00 0.00 0.00 42 1012.4
20260905204549 97 360 3.5 8.7 0.00 0.00 0.00 42 1012.4
20260905204428 97 360 3.5 8.7 0.00 0.00 0.00 41 1012.4
20260905204328 97 360 3.5 8.7 0.00 0.00 0.00 42 1012.4
20260905204228 97 360 2.6 10.4 0.00 0.00 0.00 42 1012.5
20260905204149 97 360 1.7 10.4 0.00 0.00 0.00 42 1012.5
20260905204028 97 360 1.7 10.4 0.00 0.00 0.00 42 1012.5
20260905203932 96 360 2.6 12.2 0.00 0.00 0.00 42 1012.5
20260905203833 96 360 4.3 12.2 0.00 0.00 0.00 42 1012.5
20260905203733 96 360 4.3 12.2 0.00 0.00 0.00 42 1012.5
20260905203633 96 360 4.3 12.2 0.00 0.00 0.00 42 1012.6
20260905203534 96 360 5.2 12.2 0.00 0.00 0.00 43 1012.5
20260905203454 96 360 6.1 12.2 0.00 0.00 0.00 43 1012.5
20260905203354 96 360 7.8 12.2 0.00 0.00 0.00 42 1012.6
20260905203217 97 360 6.1 12.2 0.00 0.00 0.00 42 1012.6
20260905203137 97 360 4.3 12.2 0.00 0.00 0.00 41 1012.7
20260905203037 98 360 2.6 9.6 0.00 0.00 0.00 42 1012.7
20260905202916 98 360 2.6 9.6 0.00 0.00 0.00 42 1012.6
20260905202818 97 360 3.5 9.6 0.00 0.00 0.00 42 1012.7
20260905202717 97 360 3.5 9.6 0.00 0.00 0.00 42 1012.7
20260905202618 97 360 3.5 9.6 0.00 0.00 0.00 42 1012.8
20260905202523 97 360 3.5 9.6 0.00 0.00 0.00 42 1012.8
20260905202423 97 360 3.5 9.6 0.00 0.00 0.00 43 1012.7
20260905202325 97 132 4.3 9.6 0.00 0.00 0.00 42 1012.8
20260905202225 97 360 5.2 9.6 0.00 0.00 0.00 42 1012.8
20260905202125 97 360 5.2 9.6 0.00 0.00 0.00 41 1012.9
20260905202026 97 360 4.3 9.6 0.00 0.00 0.00 41 1012.8
20260905201926 98 360 3.5 9.6 0.00 0.00 0.00 42 1012.9
20260905201831 98 360 2.6 7.0 0.00 0.00 0.00 41 1012.8
20260905201731 98 360 2.6 7.0 0.00 0.00 0.00 41 1012.8
20260905201631 99 360 1.7 5.2 0.00 0.00 0.00 41 1012.9
20260905201532 99 360 1.7 5.2 0.00 0.00 0.00 41 1012.8
20260905201433 99 360 1.7 5.2 0.00 0.00 0.00 40 1012.9
20260905201334 99 360 0.9 7.8 0.00 0.00 0.00 40 1012.9
20260905201218 99 360 0.9 7.8 0.00 0.00 0.00 40 1012.8
20260905201119 98 360 0.9 7.8 0.00 0.00 0.00 40 1012.9
20260905201019 98 360 0.9 7.8 0.00 0.00 0.00 41 1013.0
20260905200920 98 360 0.9 7.8 0.00 0.00 0.00 40 1013.0
20260905200820 98 360 1.7 7.8 0.00 0.00 0.00 41 1013.1
20260905200720 97 360 2.6 7.8 0.00 0.00 0.00 42 1013.0
20260905200625 97 360 3.5 7.8 0.00 0.00 0.00 41 1013.1
20260905200526 98 360 3.5 7.8 0.00 0.00 0.00 41 1013.1
20260905200426 98 360 3.5 11.3 0.00 0.00 0.00 41 1013.1
20260905200327 98 360 2.6 11.3 0.00 0.00 0.00 42 1013.1
20260905200228 97 360 1.7 11.3 0.00 0.00 0.00 42 1013.1
20260905200149 97 360 2.6 11.3 0.00 0.00 0.00 42 1013.1
20260905200028 97 360 2.6 11.3 0.00 0.00 0.00 42 1013.1
20260905195933 97 360 3.5 11.3 0.00 0.00 0.00 42 1013.1
20260905195854 97 360 5.2 11.3 0.00 0.00 0.00 42 1013.2
20260905195732 97 360 5.2 11.3 0.00 0.00 0.00 42 1013.2
20260905195632 97 360 6.1 11.3 0.00 0.00 0.00 42 1013.2
20260905195533 97 360 6.1 11.3 0.00 0.00 0.00 42 1013.2
20260905195433 97 360 4.3 9.6 0.00 0.00 0.00 41 1013.2
20260905195334 97 360 4.3 9.6 0.00 0.00 0.00 41 1013.3
20260905195218 97 360 3.5 10.4 0.00 0.00 0.00 42 1013.3
20260905195119 97 360 2.6 10.4 0.00 0.00 0.00 42 1013.3
20260905195039 97 360 2.6 10.4 0.00 0.00 0.00 42 1013.3
20260905194918 97 360 2.6 10.4 0.00 0.00 0.00 43 1013.3
20260905194819 96 360 3.5 10.4 0.00 0.00 0.00 42 1013.3
20260905194719 97 360 3.5 10.4 0.00 0.00 0.00 42 1013.4
20260905194619 97 360 3.5 10.4 0.00 0.00 0.00 42 1013.3
20260905194524 97 360 3.5 10.4 0.00 0.00 0.00 42 1013.4
20260905194425 97 360 2.6 10.4 0.00 0.00 0.00 42 1013.4
20260905194325 97 360 2.6 8.7 0.00 0.00 0.00 42 1013.4
20260905194226 97 360 2.6 8.7 0.00 0.00 0.00 42 1013.4
20260905194128 97 360 2.6 8.7 0.00 0.00 0.00 42 1013.4
20260905194029 97 360 2.6 8.7 0.00 0.00 0.00 42 1013.4
20260905193929 97 360 3.5 8.7 0.00 0.00 0.00 42 1013.4
20260905193854 97 360 2.6 8.7 0.00 0.00 0.00 43 1013.4
20260905193732 97 360 2.6 7.8 0.00 0.00 0.00 43 1013.5
20260905193653 97 360 2.6 7.8 0.00 0.00 0.00 42 1013.5
20260905193533 97 360 2.6 7.8 0.00 0.00 0.00 43 1013.5
20260905193433 96 360 2.6 7.8 0.00 0.00 0.00 43 1013.4
20260905193355 96 360 3.5 7.8 0.00 0.00 0.00 44 1013.5
20260905193234 96 360 4.3 7.8 0.00 0.00 0.00 45 1013.5
20260905193118 96 360 4.3 7.8 0.00 0.00 0.00 43 1013.7
20260905193020 97 360 4.3 7.8 0.00 0.00 0.00 43 1013.7
20260905192921 97 360 4.3 7.8 0.00 0.00 0.00 43 1013.6
20260905192843 98 360 3.5 7.8 0.00 0.00 0.00 43 1013.7
20260905192721 98 360 3.5 8.7 0.00 0.00 0.00 43 1013.7
20260905192640 98 360 2.6 8.7 0.00 0.00 0.00 44 1013.7
20260905192520 98 360 1.7 8.7 0.00 0.00 0.00 44 1013.8
20260905192440 97 360 2.6 8.7 0.00 0.00 0.00 43 1013.7
20260905192324 98 360 2.6 8.7 0.00 0.00 0.00 43 1013.8
20260905192225 98 360 2.6 8.7 0.00 0.00 0.00 43 1013.8
20260905192124 98 360 2.6 8.7 0.00 0.00 0.00 44 1013.7
20260905192025 98 360 2.6 8.7 0.00 0.00 0.00 42 1013.8
20260905191925 98 360 2.6 8.7 0.00 0.00 0.00 42 1013.8
20260905191826 98 159 2.6 5.2 0.00 0.00 0.00 42 1013.8
20260905191725 98 360 1.7 5.2 0.00 0.00 0.00 42 1013.9
20260905191629 98 360 1.7 5.2 0.00 0.00 0.00 43 1013.9
20260905191530 97 360 0.9 5.2 0.00 0.00 0.00 44 1013.9
20260905191450 96 360 0.9 5.2 0.00 0.00 0.00 44 1013.9
20260905191330 96 360 1.7 5.2 0.00 0.00 0.00 44 1013.9
20260905191231 95 360 2.6 8.7 0.00 0.00 0.00 44 1013.9
20260905191132 95 103 2.6 8.7 0.00 0.00 0.00 44 1013.9
20260905191052 95 360 2.6 8.7 0.00 0.00 0.00 44 1013.9
20260905190931 95 360 1.7 8.7 0.00 0.00 0.00 44 1013.9
20260905190835 95 360 1.7 8.7 0.00 0.00 0.00 45 1013.9
20260905190735 95 360 1.7 8.7 0.00 0.00 0.00 45 1014.0
20260905190616 95 360 2.6 11.3 0.00 0.00 0.00 46 1014.0
20260905190517 95 360 3.5 11.3 0.00 0.00 0.00 46 1014.0
20260905190437 94 360 4.3 11.3 0.00 0.00 0.00 45 1014.0
20260905190338 94 360 4.3 11.3 0.00 0.00 0.00 46 1014.0
20260905190237 94 360 5.2 11.3 0.00 0.00 0.00 46 1014.1
20260905190119 94 360 7.0 11.3 0.00 0.00 0.00 46 1014.0
20260905190018 94 360 7.0 11.3 0.00 0.00 0.00 46 1014.1
20260905185919 94 360 7.8 11.3 0.00 0.00 0.00 46 1014.1
20260905185821 95 360 7.0 11.3 0.00 0.00 0.00 46 1014.2
20260905185719 95 360 5.2 9.6 0.00 0.00 0.00 45 1014.1
20260905185619 96 360 4.3 9.6 0.00 0.00 0.00 46 1014.2
20260905185521 96 360 3.5 8.7 0.00 0.00 0.00 46 1014.1
20260905185425 96 360 3.5 8.7 0.00 0.00 0.00 45 1014.1
20260905185325 96 360 3.5 8.7 0.00 0.00 0.00 45 1014.2
20260905185227 96 360 4.3 8.7 0.00 0.00 0.00 45 1014.2
20260905185127 96 360 3.5 8.7 0.00 0.00 0.00 45 1014.3
20260905185028 97 360 3.5 8.7 0.00 0.00 0.00 45 1014.3
20260905184929 97 360 2.6 8.7 0.00 0.00 0.00 45 1014.3
20260905184829 96 360 3.5 8.7 0.00 0.00 0.00 45 1014.3
20260905184734 96 360 4.3 10.4 0.00 0.00 0.00 45 1014.3
20260905184634 96 360 4.3 10.4 0.00 0.00 0.00 46 1014.3
20260905184516 96 360 3.5 10.4 0.00 0.00 0.00 45 1014.3
20260905184437 96 360 3.5 10.4 0.00 0.00 0.00 45 1014.3
20260905184317 97 360 3.5 10.4 0.00 0.00 0.00 45 1014.3
20260905184217 97 360 3.5 10.4 0.00 0.00 0.00 45 1014.4
20260905184122 97 360 3.5 10.4 0.00 0.00 0.00 46 1014.4
20260905184022 96 360 2.6 10.4 0.00 0.00 0.00 45 1014.5
20260905183922 96 360 2.6 10.4 0.00 0.00 0.00 45 1014.6
20260905183823 96 360 1.7 9.6 0.00 0.00 0.00 46 1014.5
20260905183744 95 360 1.7 11.3 0.00 0.00 0.00 47 1014.7
20260905183624 95 360 2.6 11.3 0.00 0.00 0.00 46 1014.7
20260905183546 95 360 2.6 11.3 0.00 0.00 0.00 47 1014.7
20260905183445 95 360 2.6 11.3 0.00 0.00 0.00 47 1014.8
20260905183327 95 360 2.6 11.3 0.00 0.00 0.00 47 1014.8
20260905183228 95 360 3.5 11.3 0.00 0.00 0.00 46 1014.8
20260905183129 94 360 4.3 11.3 0.00 0.00 0.00 46 1014.7
20260905183029 95 360 6.1 11.3 0.00 0.00 0.00 46 1014.8
20260905182929 95 360 6.1 11.3 0.00 0.00 0.00 45 1014.8
20260905182832 96 360 3.5 11.3 0.00 0.00 0.00 45 1014.8
20260905182751 96 360 3.5 9.6 0.00 0.00 0.00 45 1014.8
20260905182652 96 360 4.3 9.6 0.00 0.00 0.00 46 1014.8
20260905182535 96 360 3.5 9.6 0.00 0.00 0.00 45 1015.0
20260905182456 96 360 2.6 9.6 0.00 0.00 0.00 46 1014.8
20260905182355 95 360 0.9 7.0 0.00 0.00 0.00 46 1014.9
20260905182233 95 360 1.7 7.0 0.00 0.00 0.00 46 1014.9
20260905182134 95 360 2.6 10.4 0.00 0.00 0.00 45 1014.9
20260905182035 95 360 2.6 10.4 0.00 0.00 0.00 45 1015.0
20260905181916 94 58 2.6 10.4 0.00 0.00 0.00 46 1015.0
20260905181820 94 11 3.5 10.4 0.00 0.00 0.00 45 1015.0
20260905181721 94 23 3.5 10.4 0.00 0.00 0.00 45 1015.0
20260905181619 94 360 3.5 10.4 0.00 0.00 0.00 46 1015.0
20260905181520 94 360 4.3 11.3 0.00 0.00 0.00 46 1015.0
20260905181420 94 360 3.5 11.3 0.00 0.00 0.00 46 1015.0
20260905181321 94 360 4.3 11.3 0.00 0.00 0.00 47 1015.1
20260905181220 94 360 4.3 11.3 0.00 0.00 0.00 48 1015.1
20260905181125 94 360 5.2 11.3 0.00 0.00 0.00 47 1015.1
20260905181040 93 360 6.1 13.0 0.00 0.00 0.00 47 1015.1
20260905180919 94 360 6.1 13.0 0.00 0.00 0.00 48 1015.2
20260905180821 93 360 6.1 13.0 0.00 0.00 0.00 48 1015.2
20260905180721 93 360 6.1 13.0 0.00 0.00 0.00 48 1015.2
20260905180623 93 360 6.1 13.9 0.00 0.00 0.00 48 1015.3
20260905180523 93 360 7.0 13.9 0.00 0.00 0.00 48 1015.3
20260905180428 93 360 7.0 13.9 0.00 0.00 0.00 48 1015.3
20260905180327 93 360 7.8 13.9 0.00 0.00 0.00 48 1015.3
20260905180228 93 360 8.7 13.9 0.00 0.00 0.00 49 1015.3
20260905180129 93 360 8.7 13.9 0.00 0.00 0.00 49 1015.4
20260905180050 93 165 9.6 13.9 0.00 0.00 0.00 47 1015.3
20260905175930 94 360 10.4 13.9 0.00 0.00 0.00 48 1015.3
20260905175832 94 360 8.7 13.9 0.00 0.00 0.00 48 1015.3
20260905175734 95 360 6.1 13.9 0.00 0.00 0.00 47 1015.3
20260905175635 95 360 2.6 12.2 0.00 0.00 0.00 52 1015.3
20260905175535 95 360 0.9 12.2 0.00 0.00 0.00 52 1015.3
20260905175416 93 360 0.9 12.2 0.00 0.00 0.00 52 1015.4
20260905175317 93 173 1.7 12.2 0.00 0.00 0.00 53 1015.4
20260905175217 92 360 2.6 12.2 0.00 0.00 0.00 53 1015.4
20260905175139 92 360 4.3 12.2 0.00 0.00 0.00 53 1015.4
20260905175023 92 172 4.3 12.2 0.00 0.00 0.00 53 1015.5
20260905174923 92 360 4.3 12.2 0.00 0.00 0.00 54 1015.5
20260905174824 92 360 4.3 12.2 0.00 0.00 0.00 53 1015.5
20260905174724 93 360 5.2 12.2 0.00 0.00 0.00 53 1015.5
20260905174625 93 360 5.2 12.2 0.00 0.00 0.00 53 1015.5
20260905174526 93 360 4.3 12.2 0.00 0.00 0.00 53 1015.5
20260905174431 93 360 3.5 11.3 0.00 0.00 0.00 52 1015.5
20260905174331 93 360 3.5 11.3 0.00 0.00 0.00 52 1015.6
20260905174231 92 360 4.3 11.3 0.00 0.00 0.00 52 1015.5
20260905174132 92 360 5.2 11.3 0.00 0.00 0.00 52 1015.6
20260905174033 92 360 6.1 14.8 0.00 0.00 0.00 52 1015.6
20260905173933 92 360 7.0 14.8 0.00 0.00 0.00 53 1015.6
20260905173818 92 360 7.8 14.8 0.00 0.00 0.00 53 1015.6
20260905173716 92 360 8.7 14.8 0.00 0.00 0.00 53 1015.6
20260905173617 92 360 7.0 14.8 0.00 0.00 0.00 52 1015.6
20260905173538 92 360 7.0 14.8 0.00 0.00 0.00 53 1015.7
20260905173437 92 360 8.7 14.8 0.00 0.00 0.00 53 1015.7
20260905173316 92 360 9.6 14.8 0.00 0.00 0.00 53 1015.6
20260905173216 92 360 7.8 14.8 0.00 0.00 0.00 53 1015.7
20260905173118 93 360 5.2 10.4 0.00 0.00 0.00 53 1015.6
20260905173022 92 360 3.5 9.6 0.00 0.00 0.00 55 1015.6
20260905172921 92 360 3.5 9.6 0.00 0.00 0.00 55 1015.7
20260905172823 92 360 2.6 9.6 0.00 0.00 0.00 57 1015.7
20260905172743 92 360 4.3 9.6 0.00 0.00 0.00 57 1015.8
20260905172623 92 360 3.5 9.6 0.00 0.00 0.00 57 1015.7
20260905172523 92 360 4.3 9.6 0.00 0.00 0.00 57 1015.8
20260905172424 92 360 3.5 7.8 0.00 0.00 0.00 58 1015.8
20260905172344 91 360 2.6 7.8 0.00 0.00 0.00 58 1015.8
20260905172228 91 225 1.7 7.0 0.00 0.00 0.00 58 1015.9
20260905172148 91 360 3.5 9.6 0.00 0.00 0.00 58 1015.9
20260905172027 91 360 4.3 9.6 0.00 0.00 0.00 57 1015.9
20260905171928 91 360 3.5 9.6 0.00 0.00 0.00 57 1015.8
20260905171828 91 360 3.5 9.6 0.00 0.00 0.00 58 1015.9
20260905171729 91 360 3.5 9.6 0.00 0.00 0.00 58 1015.9
20260905171630 91 360 3.5 10.4 0.00 0.00 0.00 58 1016.0
20260905171534 91 360 2.6 10.4 0.00 0.00 0.00 59 1015.9
20260905171433 90 360 3.5 10.4 0.00 0.00 0.00 59 1016.0
20260905171334 90 360 5.2 11.3 0.00 0.00 0.00 58 1015.9
20260905171234 91 360 5.2 11.3 0.00 0.00 0.00 61 1015.9
20260905171155 90 360 4.3 11.3 0.00 0.00 0.00 60 1015.9
20260905171034 90 360 4.3 11.3 0.00 0.00 0.00 60 1015.8
20260905170935 90 360 4.3 11.3 0.00 0.00 0.00 61 1015.9
20260905170855 90 360 5.2 11.3 0.00 0.00 0.00 61 1015.9
20260905170716 90 360 7.0 11.3 0.00 0.00 0.00 61 1015.9
20260905170616 90 360 7.0 11.3 0.00 0.00 0.00 60 1016.0
20260905170517 90 360 7.0 11.3 0.00 0.00 0.00 60 1015.9
20260905170418 90 155 7.0 11.3 0.00 0.00 0.00 60 1015.9
20260905170317 90 360 7.0 11.3 0.00 0.00 0.00 60 1015.9
20260905170218 90 360 7.0 10.4 0.00 0.00 0.00 61 1016.0
20260905170123 90 360 7.0 10.4 0.00 0.00 0.00 61 1015.9
20260905170023 90 360 6.1 10.4 0.00 0.00 0.00 60 1016.0
20260905165923 90 360 5.2 10.4 0.00 0.00 0.00 62 1016.1
20260905165825 90 360 5.2 9.6 0.00 0.00 0.00 61 1016.0
20260905165725 90 360 5.2 9.6 0.00 0.00 0.00 60 1016.0
20260905165646 91 360 5.2 9.6 0.00 0.00 0.00 59 1016.0
20260905165526 91 360 3.5 9.6 0.00 0.00 0.00 58 1016.0
20260905165431 92 360 4.3 9.6 0.00 0.00 0.00 58 1016.1
20260905165332 92 360 5.2 9.6 0.00 0.00 0.00 58 1016.0
20260905165231 93 360 4.3 9.6 0.00 0.00 0.00 57 1016.1
20260905165132 94 360 2.6 9.6 0.00 0.00 0.00 56 1016.1
20260905165032 94 360 0.9 7.0 0.00 0.00 0.00 56 1016.0
20260905164933 94 360 0.9 7.0 0.00 0.00 0.00 57 1016.0
20260905164853 93 360 1.7 7.0 0.00 0.00 0.00 59 1016.1
20260905164736 92 360 2.6 7.0 0.00 0.00 0.00 60 1016.0
20260905164657 91 360 2.6 7.0 0.00 0.00 0.00 60 1016.0
20260905164555 91 360 2.6 9.6 0.00 0.00 0.00 60 1016.1
20260905164434 90 360 3.5 9.6 0.00 0.00 0.00 61 1016.1
20260905164335 90 360 3.5 9.6 0.00 0.00 0.00 60 1016.1
20260905164235 90 360 3.5 9.6 0.00 0.00 0.00 60 1016.1
20260905164135 90 360 2.6 9.6 0.00 0.00 0.00 60 1016.0
20260905164020 90 360 2.6 10.4 0.00 0.00 0.00 62 1016.0
20260905163920 90 360 3.5 10.4 0.00 0.00 0.00 61 1016.0
20260905163820 90 360 4.3 10.4 0.00 0.00 0.00 61 1016.1
20260905163721 90 360 4.3 10.4 0.00 0.00 0.00 61 1016.1
20260905163622 89 360 4.3 10.4 0.00 0.00 0.00 60 1016.1
20260905163542 89 360 3.5 10.4 0.00 0.00 0.00 60 1016.1
20260905163442 89 360 3.5 10.4 0.00 0.00 0.00 59 1016.2
20260905163321 89 360 6.1 10.4 0.00 0.00 0.00 59 1016.2
20260905163226 90 360 6.1 10.4 0.00 0.00 0.00 61 1016.2
20260905163127 90 360 5.2 8.7 0.00 0.00 0.00 62 1016.2
20260905163027 90 360 4.3 8.7 0.00 0.00 0.00 62 1016.1
20260905162929 90 360 2.6 8.7 0.00 0.00 0.00 63 1016.1
20260905162832 89 360 2.6 8.7 0.00 0.00 0.00 63 1016.1
20260905162732 89 360 2.6 8.7 0.00 0.00 0.00 63 1016.1
20260905162617 89 360 3.5 10.4 0.00 0.00 0.00 64 1016.1
20260905162537 89 360 4.3 10.4 0.00 0.00 0.00 63 1016.2
20260905162416 88 360 4.3 10.4 0.00 0.00 0.00 62 1016.1
20260905162317 89 360 5.2 12.2 0.00 0.00 0.00 62 1016.1
20260905162218 88 360 3.5 12.2 0.00 0.00 0.00 63 1016.2
20260905162117 88 360 3.5 12.2 0.00 0.00 0.00 63 1016.1
20260905162017 88 360 4.3 12.2 0.00 0.00 0.00 64 1016.2
20260905161917 88 360 6.1 12.2 0.00 0.00 0.00 64 1016.1
20260905161822 88 360 7.8 14.8 0.00 0.00 0.00 64 1016.2
20260905161742 88 360 7.8 14.8 0.00 0.00 0.00 65 1016.2
20260905161622 88 360 7.8 14.8 0.00 0.00 0.00 65 1016.1
20260905161521 88 151 5.2 14.8 0.00 0.00 0.00 66 1016.2
20260905161443 88 360 4.3 14.8 0.00 0.00 0.00 66 1016.2
20260905161316 88 360 3.5 14.8 0.00 0.00 0.00 66 1016.1
20260905161216 88 360 6.1 14.8 0.00 0.00 0.00 65 1016.2
20260905161120 88 360 7.0 14.8 0.00 0.00 0.00 65 1016.2
20260905161042 88 360 7.0 12.2 0.00 0.00 0.00 65 1016.2
20260905160920 88 360 4.3 9.6 0.00 0.00 0.00 65 1016.1
20260905160821 88 360 3.5 9.6 0.00 0.00 0.00 66 1016.1
20260905160721 88 360 5.2 9.6 0.00 0.00 0.00 66 1016.2
20260905160642 88 360 6.1 9.6 0.00 0.00 0.00 66 1016.2
20260905160521 88 360 5.2 9.6 0.00 0.00 0.00 66 1016.2
20260905160420 89 360 4.3 9.6 0.00 0.00 0.00 66 1016.1
20260905160325 89 360 4.3 9.6 0.00 0.00 0.00 66 1016.2
20260905160246 89 360 5.2 9.6 0.00 0.00 0.00 66 1016.2
20260905160125 89 360 5.2 9.6 0.00 0.00 0.00 66 1016.1
20260905160025 90 165 5.2 8.7 0.00 0.00 0.00 65 1016.1
20260905155926 90 360 4.3 8.7 0.00 0.00 0.00 65 1016.2
20260905155848 90 360 3.5 8.7 0.00 0.00 0.00 64 1016.1
20260905155725 91 360 2.6 8.7 0.00 0.00 0.00 65 1016.1
20260905155626 91 360 1.7 3.5 0.00 0.00 0.00 66 1016.1
20260905155531 90 360 1.7 4.3 0.00 0.00 0.00 66 1016.1
20260905155430 90 360 1.7 4.3 0.00 0.00 0.00 66 1016.1
20260905155330 90 360 0.9 4.3 0.00 0.00 0.00 68 1016.1
20260905155231 89 360 1.7 5.2 0.00 0.00 0.00 70 1016.1
20260905155151 89 360 1.7 7.0 0.00 0.00 0.00 70 1016.2
20260905155051 88 360 1.7 7.0 0.00 0.00 0.00 70 1016.2
20260905154931 88 360 2.6 7.8 0.00 0.00 0.00 70 1016.1
20260905154831 87 360 1.7 7.8 0.00 0.00 0.00 71 1016.1
20260905154735 86 360 2.6 7.8 0.00 0.00 0.00 71 1016.1
20260905154636 86 360 1.7 10.4 0.00 0.00 0.00 71 1016.2
20260905154556 86 360 2.6 10.4 0.00 0.00 0.00 72 1016.1
20260905154416 86 188 3.5 10.4 0.00 0.00 0.00 71 1016.2
20260905154317 86 360 3.5 10.4 0.00 0.00 0.00 73 1016.1
20260905154217 86 360 3.5 10.4 0.00 0.00 0.00 72 1016.1
20260905154117 86 360 5.2 10.4 0.00 0.00 0.00 74 1016.1
20260905154022 85 360 5.2 10.4 0.00 0.00 0.00 74 1016.2
20260905153943 85 360 6.1 10.4 0.00 0.00 0.00 73 1016.2
20260905153823 85 360 5.2 10.4 0.00 0.00 0.00 72 1016.2
20260905153724 85 360 4.3 10.4 0.00 0.00 0.00 72 1016.2
20260905153622 86 360 3.5 10.4 0.00 0.00 0.00 72 1016.1
20260905153523 86 360 2.6 10.4 0.00 0.00 0.00 72 1016.1
20260905153423 86 360 3.5 10.4 0.00 0.00 0.00 73 1016.2
20260905153324 86 360 4.3 13.0 0.00 0.00 0.00 73 1016.1
20260905153229 86 360 4.3 13.0 0.00 0.00 0.00 73 1016.1
20260905153130 85 360 4.3 13.0 0.00 0.00 0.00 73 1016.2
20260905153030 85 360 5.2 13.0 0.00 0.00 0.00 73 1016.1
20260905152931 85 360 5.2 13.0 0.00 0.00 0.00 74 1016.1
20260905152832 85 360 6.1 13.0 0.00 0.00 0.00 73 1016.1
20260905152733 86 360 7.8 13.0 0.00 0.00 0.00 73 1016.1
20260905152616 86 360 6.1 13.0 0.00 0.00 0.00 73 1016.2
20260905152517 86 360 4.3 13.0 0.00 0.00 0.00 73 1016.2
20260905152416 86 360 2.6 9.6 0.00 0.00 0.00 75 1016.1
20260905152317 86 360 2.6 9.6 0.00 0.00 0.00 75 1016.2
20260905152218 86 360 3.5 9.6 0.00 0.00 0.00 76 1016.1
20260905152138 85 360 4.3 9.6 0.00 0.00 0.00 76 1016.1
20260905152018 85 360 4.3 9.6 0.00 0.00 0.00 76 1016.2
20260905151922 85 360 4.3 9.6 0.00 0.00 0.00 76 1016.2
20260905151822 85 360 5.2 9.6 0.00 0.00 0.00 77 1016.2
20260905151743 84 360 5.2 9.6 0.00 0.00 0.00 77 1016.2
20260905151643 84 360 4.3 9.6 0.00 0.00 0.00 77 1016.2
20260905151516 84 360 2.6 9.6 0.00 0.00 0.00 77 1016.2
20260905151417 84 360 1.7 8.7 0.00 0.00 0.00 78 1016.2
20260905151317 83 166 2.6 9.6 0.00 0.00 0.00 78 1016.3
20260905151222 83 360 3.5 9.6 0.00 0.00 0.00 78 1016.3
20260905151121 83 360 3.5 9.6 0.00 0.00 0.00 78 1016.2
20260905151042 83 360 4.3 9.6 0.00 0.00 0.00 78 1016.2
20260905150922 83 360 3.5 9.6 0.00 0.00 0.00 78 1016.2
20260905150823 83 360 3.5 9.6 0.00 0.00 0.00 78 1016.3
20260905150725 83 360 3.5 9.6 0.00 0.00 0.00 78 1016.3
20260905150624 83 360 4.3 9.6 0.00 0.00 0.00 78 1016.3
20260905150529 83 360 5.2 9.6 0.00 0.00 0.00 78 1016.3
20260905150430 83 360 5.2 9.6 0.00 0.00 0.00 77 1016.3
20260905150331 84 360 4.3 9.6 0.00 0.00 0.00 77 1016.2
20260905150251 84 360 5.2 9.6 0.00 0.00 0.00 77 1016.3
20260905150131 84 360 4.3 9.6 0.00 0.00 0.00 77 1016.3
20260905150031 85 360 5.2 9.6 0.00 0.00 0.00 77 1016.3
20260905145930 85 360 4.3 9.6 0.00 0.00 0.00 79 1016.2
20260905145832 85 360 3.5 9.6 0.00 0.00 0.00 79 1016.2
20260905145716 84 360 3.5 9.6 0.00 0.00 0.00 78 1016.2
20260905145616 84 360 4.3 9.6 0.00 0.00 0.00 78 1016.2
20260905145518 84 360 5.2 9.6 0.00 0.00 0.00 78 1016.2
20260905145418 84 360 5.2 9.6 0.00 0.00 0.00 78 1016.2
20260905145318 84 360 4.3 9.6 0.00 0.00 0.00 78 1016.2
20260905145219 85 360 3.5 7.8 0.00 0.00 0.00 78 1016.2
20260905145123 85 360 2.6 7.8 0.00 0.00 0.00 78 1016.1
20260905145044 85 360 1.7 7.8 0.00 0.00 0.00 79 1016.1
20260905144923 85 360 0.9 7.0 0.00 0.00 0.00 79 1016.1
20260905144824 84 360 0.0 7.0 0.00 0.00 0.00 80 1016.1
20260905144723 84 360 0.9 7.0 0.00 0.00 0.00 81 1016.1
20260905144624 83 360 1.7 7.0 0.00 0.00 0.00 81 1016.1
20260905144524 83 360 1.7 8.7 0.00 0.00 0.00 82 1016.1
20260905144429 82 360 1.7 9.6 0.00 0.00 0.00 82 1016.0
20260905144328 82 360 1.7 9.6 0.00 0.00 0.00 82 1016.1
20260905144249 82 360 2.6 9.6 0.00 0.00 0.00 82 1016.1
20260905144147 82 360 2.6 9.6 0.00 0.00 0.00 82 1016.1
20260905144028 82 360 3.5 9.6 0.00 0.00 0.00 82 1016.1
20260905143928 82 360 4.3 9.6 0.00 0.00 0.00 82 1016.0
20260905143829 82 360 4.3 9.6 0.00 0.00 0.00 82 1016.1
20260905143733 82 360 4.3 9.6 0.00 0.00 0.00 82 1016.1
20260905143653 82 360 4.3 9.6 0.00 0.00 0.00 82 1016.1
20260905143553 82 360 5.2 9.6 0.00 0.00 0.00 82 1016.1
20260905143433 82 360 5.2 9.6 0.00 0.00 0.00 82 1016.1
20260905143334 82 360 5.2 9.6 0.00 0.00 0.00 82 1016.1
20260905143235 82 360 5.2 10.4 0.00 0.00 0.00 82 1016.1
20260905143135 82 360 5.2 10.4 0.00 0.00 0.00 82 1016.1
20260905143019 82 360 4.3 10.4 0.00 0.00 0.00 82 1016.0
20260905142939 82 178 4.3 10.4 0.00 0.00 0.00 82 1015.9
20260905142821 82 360 3.5 10.4 0.00 0.00 0.00 83 1016.0
20260905142722 82 176 3.5 10.4 0.00 0.00 0.00 83 1016.1
20260905142622 82 360 4.3 10.4 0.00 0.00 0.00 83 1016.0
20260905142523 82 360 6.1 10.4 0.00 0.00 0.00 83 1016.1
20260905142444 82 360 6.1 10.4 0.00 0.00 0.00 82 1016.0
20260905142324 82 360 5.2 10.4 0.00 0.00 0.00 82 1016.1
20260905142228 82 360 5.2 10.4 0.00 0.00 0.00 83 1016.1
20260905142129 82 360 3.5 7.8 0.00 0.00 0.00 84 1016.1
20260905142029 82 360 3.5 7.8 0.00 0.00 0.00 84 1016.1
20260905141929 82 360 3.5 7.8 0.00 0.00 0.00 85 1016.0
20260905141849 82 360 3.5 7.8 0.00 0.00 0.00 85 1016.0
20260905141728 82 360 4.3 7.8 0.00 0.00 0.00 85 1016.0
20260905141628 82 159 3.5 7.8 0.00 0.00 0.00 85 1016.0
20260905141553 82 360 2.6 7.8 0.00 0.00 0.00 86 1016.0
20260905141432 81 166 3.5 7.8 0.00 0.00 0.00 86 1016.0
20260905141353 81 360 4.3 7.8 0.00 0.00 0.00 85 1016.0
20260905141232 81 161 4.3 7.8 0.00 0.00 0.00 86 1015.9
20260905141133 81 360 2.6 7.0 0.00 0.00 0.00 86 1016.0
20260905141032 81 360 2.6 8.7 0.00 0.00 0.00 87 1015.9
20260905140933 81 360 2.6 8.7 0.00 0.00 0.00 87 1015.8
20260905140837 81 360 2.6 8.7 0.00 0.00 0.00 87 1015.9
20260905140758 81 360 1.7 8.7 0.00 0.00 0.00 88 1015.8
20260905140636 80 360 1.7 8.7 0.00 0.00 0.00 88 1015.8
20260905140516 80 360 2.6 8.7 0.00 0.00 0.00 87 1015.8
20260905140417 80 360 4.3 8.7 0.00 0.00 0.00 87 1015.9
20260905140318 80 360 5.2 8.7 0.00 0.00 0.00 87 1015.8
20260905140240 80 360 4.3 8.7 0.00 0.00 0.00 88 1015.9
20260905140119 80 360 2.6 4.3 0.00 0.00 0.00 88 1015.9
20260905140023 80 360 1.7 4.3 0.00 0.00 0.00 88 1015.9
20260905135924 80 360 0.9 2.6 0.00 0.00 0.00 89 1015.9
20260905135825 80 360 0.9 2.6 0.00 0.00 0.00 89 1015.8
20260905135726 80 360 1.7 2.6 0.00 0.00 0.00 89 1015.9
20260905135626 80 360 0.9 2.6 0.00 0.00 0.00 89 1015.9
20260905135527 80 360 0.9 2.6 0.00 0.00 0.00 89 1015.8
20260905135448 80 360 0.9 2.6 0.00 0.00 0.00 89 1015.9
20260905135332 80 360 0.9 2.6 0.00 0.00 0.00 89 1015.9
20260905135233 80 165 0.9 3.5 0.00 0.00 0.00 89 1015.8
20260905135134 79 360 0.9 1.7 0.00 0.00 0.00 89 1015.8
20260905135034 79 165 0.9 1.7 0.00 0.00 0.00 89 1015.8
20260905134935 79 360 0.9 2.6 0.00 0.00 0.00 89 1015.8
20260905134816 79 165 0.9 2.6 0.00 0.00 0.00 89 1015.8
20260905134722 79 360 0.9 2.6 0.00 0.00 0.00 89 1015.8
20260905134622 79 360 0.9 2.6 0.00 0.00 0.00 90 1015.8
20260905134542 79 360 0.9 2.6 0.00 0.00 0.00 90 1015.8
20260905134416 79 360 0.9 2.6 0.00 0.00 0.00 90 1015.9
20260905134316 79 360 0.0 2.6 0.00 0.00 0.00 90 1015.8
20260905134217 79 360 0.9 2.6 0.00 0.00 0.00 90 1015.8
20260905134122 79 360 0.9 2.6 0.00 0.00 0.00 90 1015.8
20260905134022 79 360 1.7 2.6 0.00 0.00 0.00 90 1015.8
20260905133922 79 360 0.9 2.6 0.00 0.00 0.00 90 1015.7
20260905133824 79 360 0.9 2.6 0.00 0.00 0.00 90 1015.8
20260905133723 79 360 0.9 4.3 0.00 0.00 0.00 90 1015.8
20260905133624 79 360 0.9 4.3 0.00 0.00 0.00 90 1015.8
20260905133524 78 360 1.7 4.3 0.00 0.00 0.00 91 1015.7
20260905133429 78 360 1.7 4.3 0.00 0.00 0.00 91 1015.7
20260905133329 78 360 1.7 4.3 0.00 0.00 0.00 91 1015.7
20260905133229 78 360 1.7 4.3 0.00 0.00 0.00 91 1015.6
20260905133150 78 360 1.7 4.3 0.00 0.00 0.00 91 1015.8
20260905133049 78 360 2.6 4.3 0.00 0.00 0.00 91 1015.7
20260905132928 78 360 2.6 4.3 0.00 0.00 0.00 91 1015.7
20260905132829 78 360 2.6 3.5 0.00 0.00 0.00 91 1015.7
20260905132729 78 360 2.6 3.5 0.00 0.00 0.00 91 1015.8
20260905132654 78 360 1.7 3.5 0.00 0.00 0.00 91 1015.8
20260905132533 78 360 1.7 2.6 0.00 0.00 0.00 91 1015.7
20260905132433 78 179 1.7 2.6 0.00 0.00 0.00 91 1015.8
20260905132352 78 360 0.9 2.6 0.00 0.00 0.00 91 1015.6
20260905132232 78 186 0.0 1.7 0.00 0.00 0.00 91 1015.7
20260905132131 78 360 0.0 1.7 0.00 0.00 0.00 91 1015.6
20260905132052 78 186 0.9 1.7 0.00 0.00 0.00 91 1015.6
20260905131930 78 186 0.9 1.7 0.00 0.00 0.00 91 1015.6
20260905131831 78 360 0.9 1.7 0.00 0.00 0.00 91 1015.6
20260905131751 78 360 0.9 1.7 0.00 0.00 0.00 91 1015.6
20260905131633 78 360 0.9 1.7 0.00 0.00 0.00 91 1015.6
20260905131534 77 360 0.9 1.7 0.00 0.00 0.00 91 1015.5
20260905131435 77 360 0.9 1.7 0.00 0.00 0.00 91 1015.5
20260905131336 77 360 0.9 1.7 0.00 0.00 0.00 91 1015.5
20260905131216 77 360 0.9 1.7 0.00 0.00 0.00 91 1015.5
20260905131117 77 360 0.9 1.7 0.00 0.00 0.00 91 1015.5
20260905131021 77 360 0.9 1.7 0.00 0.00 0.00 91 1015.4
20260905130921 77 186 0.0 1.7 0.00 0.00 0.00 91 1015.5
20260905130823 77 186 0.0 0.9 0.00 0.00 0.00 91 1015.4
20260905130723 77 360 0.0 0.9 0.00 0.00 0.00 91 1015.5
20260905130624 77 360 0.0 0.9 0.00 0.00 0.00 91 1015.5
20260905130545 77 360 0.0 1.7 0.00 0.00 0.00 91 1015.5
20260905130444 77 360 0.0 1.7 0.00 0.00 0.00 91 1015.4
20260905130323 77 360 0.0 3.5 0.00 0.00 0.00 91 1015.4
20260905130242 77 360 0.0 3.5 0.00 0.00 0.00 91 1015.4
20260905130126 77 360 0.0 3.5 0.00 0.00 0.00 91 1015.4
20260905130027 77 360 0.0 3.5 0.00 0.00 0.00 91 1015.4
20260905125928 77 360 0.0 3.5 0.00 0.00 0.00 91 1015.5
20260905125849 77 360 0.0 3.5 0.00 0.00 0.00 91 1015.4
20260905125727 76 360 0.0 3.5 0.00 0.00 0.00 91 1015.4
20260905125628 76 360 0.9 3.5 0.00 0.00 0.00 91 1015.4
20260905125529 76 360 0.9 3.5 0.00 0.00 0.00 91 1015.3
20260905125434 76 186 0.9 3.5 0.00 0.00 0.00 91 1015.4
20260905125334 76 186 0.9 3.5 0.00 0.00 0.00 91 1015.3
20260905125234 76 360 0.0 0.0 0.00 0.00 0.00 91 1015.3
20260905125135 76 360 0.0 0.0 0.00 0.00 0.00 91 1015.3
20260905125036 76 360 0.0 0.0 0.00 0.00 0.00 91 1015.2
20260905124935 76 360 0.0 0.0 0.00 0.00 0.00 91 1015.2
20260905124820 76 360 0.0 0.0 0.00 0.00 0.00 91 1015.2
20260905124741 76 360 0.0 0.0 0.00 0.00 0.00 91 1015.2
20260905124621 76 360 0.0 0.0 0.00 0.00 0.00 91 1015.2
20260905124519 76 360 0.0 0.0 0.00 0.00 0.00 91 1015.2
20260905124420 76 360 0.0 0.0 0.00 0.00 0.00 91 1015.2
20260905124320 75 360 0.0 0.0 0.00 0.00 0.00 91 1015.1
20260905124220 75 185 0.0 0.0 0.00 0.00 0.00 91 1015.1
20260905124141 75 360 0.0 0.0 0.00 0.00 0.00 91 1015.2
20260905124041 75 185 0.0 0.0 0.00 0.00 0.00 91 1015.1
20260905123925 75 185 0.0 0.0 0.00 0.00 0.00 91 1015.1
20260905123825 75 185 0.0 0.0 0.00 0.00 0.00 91 1015.1
20260905123724 75 360 0.0 0.0 0.00 0.00 0.00 91 1015.1
20260905123624 75 185 0.0 0.0 0.00 0.00 0.00 91 1015.1
20260905123523 75 185 0.0 0.0 0.00 0.00 0.00 91 1015.1
20260905123423 75 185 0.0 0.0 0.00 0.00 0.00 91 1015.2
20260905123324 75 185 0.0 0.0 0.00 0.00 0.00 91 1015.1
20260905123228 75 185 0.0 0.0 0.00 0.00 0.00 91 1015.1
20260905123129 75 185 0.0 0.0 0.00 0.00 0.00 91 1015.1
20260905123030 75 185 0.0 0.0 0.00 0.00 0.00 91 1015.1
20260905122931 75 185 0.0 0.0 0.00 0.00 0.00 91 1015.1
20260905122833 75 185 0.0 0.0 0.00 0.00 0.00 91 1015.2
20260905122733 75 185 0.0 0.0 0.00 0.00 0.00 91 1015.1
20260905122617 75 185 0.0 0.0 0.00 0.00 0.00 91 1015.1
20260905122517 75 185 0.0 0.0 0.00 0.00 0.00 90 1015.2
20260905122419 75 185 0.0 0.0 0.00 0.00 0.00 90 1015.1
20260905122319 75 185 0.0 0.0 0.00 0.00 0.00 90 1015.2
20260905122221 75 185 0.0 0.0 0.00 0.00 0.00 90 1015.2
20260905122121 75 185 0.0 0.0 0.00 0.00 0.00 91 1015.1
20260905122021 75 185 0.0 0.0 0.00 0.00 0.00 91 1015.2
20260905121926 75 185 0.0 0.0 0.00 0.00 0.00 90 1015.1
20260905121847 75 185 0.0 0.0 0.00 0.00 0.00 90 1015.1
20260905121726 75 185 0.0 0.0 0.00 0.00 0.00 90 1015.1
20260905121627 75 185 0.0 0.0 0.00 0.00 0.00 90 1015.2
20260905121526 75 185 0.0 0.0 0.00 0.00 0.00 90 1015.1
20260905121447 75 360 0.0 0.0 0.00 0.00 0.00 90 1015.1
20260905121327 75 185 0.0 0.0 0.00 0.00 0.00 90 1015.1
20260905121232 75 185 0.0 0.0 0.00 0.00 0.00 90 1015.1
20260905121132 75 185 0.0 0.0 0.00 0.00 0.00 90 1015.1
20260905121033 76 185 0.0 0.0 0.00 0.00 0.00 90 1015.0
20260905120934 76 185 0.0 0.0 0.00 0.00 0.00 90 1015.0
20260905120835 76 360 0.0 0.0 0.00 0.00 0.00 90 1015.0
20260905120735 76 360 0.0 0.0 0.00 0.00 0.00 90 1015.0
20260905120620 76 360 0.0 0.0 0.00 0.00 0.00 90 1015.0
20260905120519 76 360 0.0 0.0 0.00 0.00 0.00 90 1015.0
20260905120421 76 360 0.0 0.0 0.00 0.00 0.00 90 1014.9
20260905120321 76 360 0.0 0.0 0.00 0.00 0.00 90 1015.0
20260905120242 76 360 0.0 0.0 0.00 0.00 0.00 90 1015.0
20260905120121 76 360 0.0 0.0 0.00 0.00 0.00 90 1015.0
20260905120021 76 360 0.0 0.0 0.00 0.00 0.00 90 1015.0
20260905115921 76 185 0.0 0.0 0.00 0.00 0.00 90 1015.0
20260905115827 76 360 0.0 0.0 0.00 0.00 0.00 90 1015.0
20260905115727 76 185 0.0 0.0 0.00 0.00 0.00 90 1015.0
20260905115646 76 185 0.0 0.0 0.00 0.00 0.00 90 1015.1
20260905115526 76 360 0.0 0.0 0.00 0.00 0.00 90 1015.0
20260905115427 76 360 0.0 0.0 0.00 0.00 0.00 90 1015.0
20260905115327 76 360 0.0 0.0 0.00 0.00 0.00 90 1015.1
20260905115228 76 360 0.0 0.0 0.00 0.00 0.00 90 1015.1
20260905115133 76 360 0.0 0.0 0.00 0.00 0.00 90 1015.0
20260905115034 76 360 0.0 0.0 0.00 0.00 0.00 90 1015.0
20260905114935 76 360 0.0 0.0 0.00 0.00 0.00 90 1015.0
20260905114836 76 360 0.0 0.0 0.00 0.00 0.00 90 1014.9
20260905114717 76 360 0.0 0.0 0.00 0.00 0.00 90 1014.9
20260905114617 76 360 0.0 0.0 0.00 0.00 0.00 90 1014.9
20260905114520 76 360 0.0 0.0 0.00 0.00 0.00 90 1014.9
20260905114421 76 360 0.0 0.0 0.00 0.00 0.00 90 1015.0
20260905114321 76 360 0.0 0.0 0.00 0.00 0.00 90 1014.9
20260905114242 76 185 0.0 0.0 0.00 0.00 0.00 90 1014.8
20260905114123 76 185 0.0 0.0 0.00 0.00 0.00 90 1014.8
20260905114045 75 185 0.0 0.0 0.00 0.00 0.00 90 1014.7
20260905113925 76 360 0.0 0.0 0.00 0.00 0.00 90 1014.8
20260905113825 75 360 0.0 0.0 0.00 0.00 0.00 90 1014.8
20260905113750 76 185 0.0 0.0 0.00 0.00 0.00 90 1014.8
20260905113631 76 185 0.0 0.0 0.00 0.00 0.00 90 1014.7
20260905113552 76 185 0.0 0.0 0.00 0.00 0.00 90 1014.8
20260905113452 76 185 0.0 0.0 0.00 0.00 0.00 90 1014.7
20260905113352 76 360 0.0 0.0 0.00 0.00 0.00 89 1014.8
20260905113231 76 360 0.0 0.0 0.00 0.00 0.00 89 1014.8
20260905113132 76 360 0.0 0.0 0.00 0.00 0.00 90 1014.7
20260905113033 76 360 0.0 0.0 0.00 0.00 0.00 90 1014.8
20260905112918 76 360 0.0 0.0 0.00 0.00 0.00 90 1014.8
20260905112819 76 360 0.0 0.0 0.00 0.00 0.00 90 1014.8
20260905112720 76 360 0.0 0.0 0.00 0.00 0.00 90 1014.8
20260905112641 76 360 0.0 0.0 0.00 0.00 0.00 90 1014.8
20260905112520 76 360 0.0 0.0 0.00 0.00 0.00 89 1014.8
20260905112421 76 360 0.0 0.0 0.00 0.00 0.00 89 1014.8
20260905112321 76 360 0.0 0.0 0.00 0.00 0.00 89 1014.8
20260905112246 76 360 0.0 0.0 0.00 0.00 0.00 89 1014.8
20260905112125 76 360 0.0 0.0 0.00 0.00 0.00 89 1014.8
20260905112025 76 360 0.0 0.0 0.00 0.00 0.00 89 1014.7
20260905111927 76 360 0.0 0.0 0.00 0.00 0.00 89 1014.7
20260905111828 76 360 0.0 0.0 0.00 0.00 0.00 89 1014.7
20260905111728 76 360 0.0 0.0 0.00 0.00 0.00 89 1014.7
20260905111630 76 360 0.0 0.0 0.00 0.00 0.00 89 1014.7
20260905111534 76 360 0.0 0.0 0.00 0.00 0.00 89 1014.6
20260905111435 76 360 0.0 0.0 0.00 0.00 0.00 89 1014.6
20260905111335 76 360 0.0 0.0 0.00 0.00 0.00 89 1014.7
20260905111235 76 360 0.0 0.0 0.00 0.00 0.00 89 1014.6
20260905111117 76 360 0.0 0.0 0.00 0.00 0.00 89 1014.7
20260905111038 76 360 0.0 0.0 0.00 0.00 0.00 89 1014.7
20260905110922 76 360 0.0 0.0 0.00 0.00 0.00 89 1014.6
20260905110822 76 360 0.0 0.0 0.00 0.00 0.00 89 1014.6
20260905110723 76 360 0.0 0.0 0.00 0.00 0.00 89 1014.6
20260905110625 76 360 0.0 0.0 0.00 0.00 0.00 89 1014.7
20260905110526 76 360 0.0 0.0 0.00 0.00 0.00 89 1014.7
20260905110425 76 360 0.0 0.0 0.00 0.00 0.00 89 1014.7
20260905110326 76 360 0.0 0.0 0.00 0.00 0.00 89 1014.7
20260905110250 76 360 0.0 0.0 0.00 0.00 0.00 89 1014.6
20260905110130 76 360 0.0 0.0 0.00 0.00 0.00 89 1014.6
20260905110029 76 360 0.0 0.0 0.00 0.00 0.00 89 1014.6
20260905105930 76 360 0.0 0.0 0.00 0.00 0.00 89 1014.6
20260905105832 76 360 0.0 0.0 0.00 0.00 0.00 89 1014.6
20260905105752 76 360 0.0 0.0 0.00 0.00 0.00 89 1014.6
20260905105631 76 360 0.0 0.0 0.00 0.00 0.00 89 1014.6
20260905105516 76 360 0.0 0.0 0.00 0.00 0.00 89 1014.7
20260905105416 76 360 0.0 0.0 0.00 0.00 0.00 89 1014.6
20260905105337 76 360 0.0 0.0 0.00 0.00 0.00 89 1014.6
20260905105236 76 360 0.0 0.0 0.00 0.00 0.00 89 1014.5
20260905105116 76 360 0.0 0.0 0.00 0.00 0.00 89 1014.6
20260905105017 76 360 0.0 0.0 0.00 0.00 0.00 89 1014.6
20260905104918 77 360 0.0 0.0 0.00 0.00 0.00 89 1014.5
20260905104823 76 360 0.0 0.0 0.00 0.00 0.00 89 1014.5
20260905104724 76 360 0.0 0.0 0.00 0.00 0.00 89 1014.5
20260905104624 77 360 0.0 0.0 0.00 0.00 0.00 89 1014.5
20260905104525 77 360 0.0 0.0 0.00 0.00 0.00 89 1014.5
20260905104445 77 360 0.0 0.0 0.00 0.00 0.00 89 1014.6
20260905104325 77 360 0.0 0.0 0.00 0.00 0.00 89 1014.5
20260905104245 77 360 0.0 0.0 0.00 0.00 0.00 89 1014.5
20260905104125 77 360 0.0 0.0 0.00 0.00 0.00 89 1014.6
20260905104029 77 360 0.0 0.0 0.00 0.00 0.00 89 1014.5
20260905103930 77 360 0.0 0.0 0.00 0.00 0.00 89 1014.5
20260905103830 77 360 0.0 0.0 0.00 0.00 0.00 89 1014.5
20260905103751 77 360 0.0 0.0 0.00 0.00 0.00 89 1014.5
20260905103629 77 360 0.0 0.0 0.00 0.00 0.00 89 1014.5
20260905103528 77 360 0.0 0.0 0.00 0.00 0.00 89 1014.5
20260905103429 77 360 0.0 0.0 0.00 0.00 0.00 89 1014.5
20260905103334 77 360 0.0 0.0 0.00 0.00 0.00 89 1014.6
20260905103235 77 360 0.0 0.0 0.00 0.00 0.00 89 1014.5
20260905103134 77 360 0.0 0.0 0.00 0.00 0.00 89 1014.6
20260905103034 77 360 0.0 0.0 0.00 0.00 0.00 89 1014.5
20260905102935 77 360 0.0 0.0 0.00 0.00 0.00 89 1014.6
20260905102836 77 360 0.0 0.0 0.00 0.00 0.00 89 1014.5
20260905102716 77 360 0.0 0.0 0.00 0.00 0.00 89 1014.5
20260905102640 77 360 0.0 0.0 0.00 0.00 0.00 89 1014.4
20260905102519 77 360 0.0 0.0 0.00 0.00 0.00 89 1014.5
20260905102419 77 360 0.0 1.7 0.00 0.00 0.00 89 1014.4
20260905102320 77 360 0.0 1.7 0.00 0.00 0.00 89 1014.5
20260905102220 77 360 0.0 1.7 0.00 0.00 0.00 89 1014.5
20260905102120 77 360 0.0 1.7 0.00 0.00 0.00 89 1014.5
20260905102042 77 360 0.0 1.7 0.00 0.00 0.00 89 1014.5
20260905101921 77 360 0.0 2.6 0.00 0.00 0.00 89 1014.5
20260905101842 77 360 0.0 2.6 0.00 0.00 0.00 89 1014.5
20260905101726 77 360 0.0 2.6 0.00 0.00 0.00 89 1014.5
20260905101646 77 360 0.9 2.6 0.00 0.00 0.00 89 1014.4
20260905101525 77 360 0.9 2.6 0.00 0.00 0.00 89 1014.4
20260905101426 77 360 0.9 2.6 0.00 0.00 0.00 89 1014.4
20260905101347 77 360 0.9 2.6 0.00 0.00 0.00 89 1014.3
20260905101228 77 360 0.9 2.6 0.00 0.00 0.00 89 1014.4
20260905101126 77 360 0.9 2.6 0.00 0.00 0.00 89 1014.4
20260905101027 77 360 0.9 2.6 0.00 0.00 0.00 89 1014.3
20260905100952 77 360 0.0 1.7 0.00 0.00 0.00 89 1014.4
20260905100831 77 360 0.0 0.9 0.00 0.00 0.00 89 1014.4
20260905100732 77 185 0.0 0.9 0.00 0.00 0.00 89 1014.4
20260905100632 77 360 0.0 0.9 0.00 0.00 0.00 89 1014.5
20260905100533 77 360 0.0 1.7 0.00 0.00 0.00 89 1014.4
20260905100454 77 360 0.0 1.7 0.00 0.00 0.00 89 1014.5
20260905100334 77 360 0.0 1.7 0.00 0.00 0.00 88 1014.4
20260905100219 77 360 0.0 1.7 0.00 0.00 0.00 88 1014.5
20260905100118 77 360 0.0 1.7 0.00 0.00 0.00 88 1014.4
20260905100019 77 360 0.0 1.7 0.00 0.00 0.00 88 1014.4
20260905095939 77 360 0.9 1.7 0.00 0.00 0.00 88 1014.5
20260905095820 77 360 0.9 1.7 0.00 0.00 0.00 88 1014.5
20260905095718 77 360 0.9 1.7 0.00 0.00 0.00 88 1014.4
20260905095619 77 360 0.9 1.7 0.00 0.00 0.00 88 1014.4
20260905095524 77 360 0.9 1.7 0.00 0.00 0.00 88 1014.4
20260905095425 77 360 0.9 1.7 0.00 0.00 0.00 88 1014.4
20260905095346 77 360 0.9 1.7 0.00 0.00 0.00 88 1014.4
20260905095224 77 360 0.9 1.7 0.00 0.00 0.00 88 1014.4
20260905095126 77 360 0.0 0.9 0.00 0.00 0.00 88 1014.3
20260905095026 77 360 0.0 0.9 0.00 0.00 0.00 88 1014.4
20260905094926 77 360 0.0 0.0 0.00 0.00 0.00 88 1014.3
20260905094827 77 360 0.0 0.0 0.00 0.00 0.00 88 1014.3
20260905094730 77 360 0.0 0.0 0.00 0.00 0.00 88 1014.3
20260905094650 77 360 0.0 0.0 0.00 0.00 0.00 88 1014.3
20260905094530 77 360 0.0 0.0 0.00 0.00 0.00 88 1014.3
20260905094431 77 360 0.0 0.0 0.00 0.00 0.00 89 1014.3
20260905094331 77 360 0.0 0.0 0.00 0.00 0.00 88 1014.3
20260905094232 77 360 0.0 0.0 0.00 0.00 0.00 88 1014.2
20260905094116 77 360 0.0 0.0 0.00 0.00 0.00 88 1014.2
20260905094037 77 185 0.0 0.0 0.00 0.00 0.00 88 1014.3
20260905093917 77 185 0.0 0.0 0.00 0.00 0.00 88 1014.2
20260905093817 77 185 0.0 0.9 0.00 0.00 0.00 88 1014.3
20260905093719 77 185 0.0 0.9 0.00 0.00 0.00 88 1014.2
20260905093621 77 185 0.0 0.9 0.00 0.00 0.00 88 1014.1
20260905093521 77 185 0.0 1.7 0.00 0.00 0.00 88 1014.2
20260905093426 78 360 0.0 1.7 0.00 0.00 0.00 88 1014.2
20260905093325 78 360 0.0 1.7 0.00 0.00 0.00 88 1014.1
20260905093225 78 360 0.0 1.7 0.00 0.00 0.00 88 1014.2
20260905093127 78 185 0.0 1.7 0.00 0.00 0.00 88 1014.1
20260905093028 78 185 0.0 1.7 0.00 0.00 0.00 88 1014.1
20260905092949 78 360 0.0 1.7 0.00 0.00 0.00 88 1014.1
20260905092829 78 360 0.0 1.7 0.00 0.00 0.00 88 1014.1
20260905092729 78 360 0.9 1.7 0.00 0.00 0.00 88 1014.1
20260905092633 78 360 0.9 1.7 0.00 0.00 0.00 88 1014.1
20260905092534 78 360 0.9 1.7 0.00 0.00 0.00 88 1014.2
20260905092454 78 360 0.9 1.7 0.00 0.00 0.00 88 1014.2
20260905092333 78 360 0.0 3.5 0.00 0.00 0.00 88 1014.2
20260905092253 78 360 0.0 3.5 0.00 0.00 0.00 88 1014.1
20260905092153 78 360 0.0 3.5 0.00 0.00 0.00 88 1014.2
20260905092032 78 360 0.0 3.5 0.00 0.00 0.00 88 1014.2
20260905091933 78 360 0.9 3.5 0.00 0.00 0.00 88 1014.2
20260905091817 78 360 0.9 3.5 0.00 0.00 0.00 88 1014.2
20260905091717 78 360 0.9 3.5 0.00 0.00 0.00 88 1014.2
20260905091618 78 360 0.9 3.5 0.00 0.00 0.00 89 1014.3
20260905091519 78 360 1.7 3.5 0.00 0.00 0.00 89 1014.3
20260905091419 78 360 1.7 4.3 0.00 0.00 0.00 88 1014.4
20260905091319 78 360 0.9 4.3 0.00 0.00 0.00 88 1014.4
20260905091224 78 360 0.9 4.3 0.00 0.00 0.00 88 1014.4
20260905091126 78 360 0.9 4.3 0.00 0.00 0.00 88 1014.3
20260905091026 78 185 0.9 4.3 0.00 0.00 0.00 88 1014.3
20260905090927 78 360 0.9 4.3 0.00 0.00 0.00 88 1014.3
20260905090825 78 360 1.7 4.3 0.00 0.00 0.00 88 1014.3
20260905090725 78 360 1.7 4.3 0.00 0.00 0.00 88 1014.4
20260905090625 78 360 2.6 4.3 0.00 0.00 0.00 88 1014.4
20260905090530 78 360 2.6 4.3 0.00 0.00 0.00 88 1014.3
20260905090451 78 360 1.7 3.5 0.00 0.00 0.00 88 1014.3
20260905090330 78 360 1.7 3.5 0.00 0.00 0.00 88 1014.3
20260905090230 78 360 1.7 4.3 0.00 0.00 0.00 88 1014.3
20260905090131 78 360 1.7 4.3 0.00 0.00 0.00 88 1014.3
20260905090051 78 360 1.7 4.3 0.00 0.00 0.00 88 1014.3
20260905085930 78 360 1.7 4.3 0.00 0.00 0.00 88 1014.3
20260905085832 78 360 1.7 5.2 0.00 0.00 0.00 88 1014.3
20260905085734 78 360 0.9 5.2 0.00 0.00 0.00 88 1014.5
20260905085634 78 185 0.9 7.0 0.00 0.00 0.00 88 1014.3
20260905085534 78 360 1.7 7.0 0.00 0.00 0.00 88 1014.4
20260905085455 78 360 1.7 7.0 0.00 0.00 0.00 88 1014.4
20260905085334 78 360 1.7 7.0 0.00 0.00 0.00 88 1014.4
20260905085235 78 360 1.7 7.0 0.00 0.00 0.00 88 1014.4
20260905085156 78 360 1.7 7.0 0.00 0.00 0.00 88 1014.4
20260905085019 78 360 2.6 7.0 0.00 0.00 0.00 88 1014.4
20260905084919 78 360 3.5 7.0 0.00 0.00 0.00 88 1014.4
20260905084819 78 360 3.5 7.0 0.00 0.00 0.00 88 1014.4
20260905084718 78 360 3.5 7.0 0.00 0.00 0.00 88 1014.4
20260905084619 78 360 2.6 7.0 0.00 0.00 0.00 87 1014.5
20260905084520 78 360 3.5 8.7 0.00 0.00 0.00 87 1014.4
20260905084420 78 360 2.6 8.7 0.00 0.00 0.00 87 1014.5
20260905084320 78 360 3.5 8.7 0.00 0.00 0.00 87 1014.4
20260905084225 78 360 3.5 8.7 0.00 0.00 0.00 87 1014.4
20260905084127 78 360 3.5 8.7 0.00 0.00 0.00 87 1014.4
20260905084028 78 360 3.5 8.7 0.00 0.00 0.00 87 1014.4
20260905083928 78 360 4.3 8.7 0.00 0.00 0.00 87 1014.4
20260905083828 78 360 4.3 8.7 0.00 0.00 0.00 87 1014.4
20260905083729 78 360 4.3 8.7 0.00 0.00 0.00 87 1014.4
20260905083633 78 360 3.5 8.7 0.00 0.00 0.00 87 1014.5
20260905083554 78 360 3.5 8.7 0.00 0.00 0.00 87 1014.5
20260905083434 78 360 3.5 8.7 0.00 0.00 0.00 87 1014.4
20260905083335 78 360 4.3 8.7 0.00 0.00 0.00 87 1014.5
20260905083216 78 360 3.5 8.7 0.00 0.00 0.00 87 1014.4
20260905083116 78 360 4.3 8.7 0.00 0.00 0.00 87 1014.5
20260905083038 78 360 3.5 7.8 0.00 0.00 0.00 87 1014.5
20260905082921 78 360 3.5 7.8 0.00 0.00 0.00 87 1014.5
20260905082822 78 360 3.5 7.8 0.00 0.00 0.00 87 1014.4
20260905082719 78 360 2.6 7.8 0.00 0.00 0.00 87 1014.5
20260905082620 78 360 2.6 7.8 0.00 0.00 0.00 87 1014.4
20260905082541 78 360 2.6 8.7 0.00 0.00 0.00 87 1014.5
20260905082420 78 360 3.5 8.7 0.00 0.00 0.00 87 1014.5
20260905082320 78 360 4.3 8.7 0.00 0.00 0.00 87 1014.4
20260905082219 78 360 3.5 8.7 0.00 0.00 0.00 87 1014.4
20260905082125 78 360 2.6 8.7 0.00 0.00 0.00 87 1014.5
20260905082025 78 360 1.7 8.7 0.00 0.00 0.00 87 1014.5
20260905081926 78 360 2.6 8.7 0.00 0.00 0.00 86 1014.5
20260905081826 78 360 3.5 8.7 0.00 0.00 0.00 86 1014.6
20260905081746 78 360 3.5 8.7 0.00 0.00 0.00 86 1014.6
20260905081625 78 360 2.6 7.8 0.00 0.00 0.00 86 1014.6
20260905081526 79 360 1.7 7.0 0.00 0.00 0.00 86 1014.6
20260905081430 79 360 1.7 7.0 0.00 0.00 0.00 86 1014.6
20260905081351 78 360 1.7 7.0 0.00 0.00 0.00 86 1014.6
20260905081231 79 360 1.7 7.0 0.00 0.00 0.00 86 1014.7
20260905081132 79 360 2.6 7.0 0.00 0.00 0.00 86 1014.6
20260905081031 79 360 3.5 7.0 0.00 0.00 0.00 86 1014.6
20260905080932 79 360 2.6 7.0 0.00 0.00 0.00 86 1014.7
20260905080832 79 360 3.5 7.8 0.00 0.00 0.00 86 1014.7
20260905080717 79 360 3.5 7.8 0.00 0.00 0.00 86 1014.7
20260905080617 79 360 3.5 7.8 0.00 0.00 0.00 86 1014.8
20260905080517 79 360 2.6 8.7 0.00 0.00 0.00 86 1014.7
20260905080418 79 360 2.6 8.7 0.00 0.00 0.00 86 1014.8
20260905080318 79 360 2.6 8.7 0.00 0.00 0.00 86 1014.8
20260905080219 79 360 3.5 8.7 0.00 0.00 0.00 86 1014.8
20260905080123 79 360 3.5 8.7 0.00 0.00 0.00 86 1014.8
20260905080045 79 360 2.6 8.7 0.00 0.00 0.00 86 1014.8
20260905075925 79 360 3.5 8.7 0.00 0.00 0.00 86 1014.7
20260905075827 79 360 3.5 8.7 0.00 0.00 0.00 86 1014.8
20260905075727 79 360 3.5 8.7 0.00 0.00 0.00 86 1014.8
20260905075626 79 360 1.7 7.8 0.00 0.00 0.00 85 1014.8
20260905075527 79 360 1.7 7.8 0.00 0.00 0.00 85 1014.7
20260905075432 79 360 2.6 7.8 0.00 0.00 0.00 85 1014.8
20260905075332 79 360 3.5 7.8 0.00 0.00 0.00 85 1014.8
20260905075233 79 360 2.6 7.8 0.00 0.00 0.00 85 1014.8
20260905075132 79 360 2.6 7.8 0.00 0.00 0.00 85 1014.8
20260905075052 79 360 2.6 7.8 0.00 0.00 0.00 85 1014.8
20260905074932 79 360 4.3 7.8 0.00 0.00 0.00 85 1014.9
20260905074833 79 360 4.3 7.8 0.00 0.00 0.00 85 1014.8
20260905074754 79 360 4.3 7.8 0.00 0.00 0.00 85 1014.9
20260905074617 79 360 4.3 7.8 0.00 0.00 0.00 85 1014.8
20260905074517 79 360 4.3 7.8 0.00 0.00 0.00 85 1014.9
20260905074417 79 360 3.5 7.8 0.00 0.00 0.00 85 1015.0
20260905074338 79 360 3.5 9.6 0.00 0.00 0.00 85 1014.9
20260905074216 79 360 3.5 9.6 0.00 0.00 0.00 85 1014.9
20260905074118 79 360 3.5 9.6 0.00 0.00 0.00 85 1015.0
20260905074016 79 360 3.5 9.6 0.00 0.00 0.00 85 1015.0
20260905073916 79 177 3.5 9.6 0.00 0.00 0.00 85 1014.9
20260905073821 79 360 4.3 9.6 0.00 0.00 0.00 85 1014.8
20260905073723 79 360 4.3 9.6 0.00 0.00 0.00 85 1014.9
20260905073624 79 170 5.2 9.6 0.00 0.00 0.00 85 1014.9
20260905073523 79 360 4.3 9.6 0.00 0.00 0.00 85 1014.9
20260905073424 79 360 3.5 7.8 0.00 0.00 0.00 84 1014.9
20260905073325 79 360 2.6 7.8 0.00 0.00 0.00 84 1014.9
20260905073226 79 360 2.6 7.8 0.00 0.00 0.00 84 1014.8
20260905073151 79 360 2.6 7.8 0.00 0.00 0.00 84 1014.8
20260905073050 79 360 4.3 7.8 0.00 0.00 0.00 84 1014.8
20260905072930 79 360 4.3 7.8 0.00 0.00 0.00 84 1014.9
20260905072832 79 360 3.5 7.8 0.00 0.00 0.00 84 1014.8
20260905072732 79 360 3.5 7.0 0.00 0.00 0.00 84 1015.0
20260905072632 79 360 4.3 7.0 0.00 0.00 0.00 84 1014.9
20260905072533 79 360 4.3 7.0 0.00 0.00 0.00 84 1014.9
20260905072418 79 360 5.2 7.8 0.00 0.00 0.00 84 1015.0
20260905072319 79 360 4.3 7.8 0.00 0.00 0.00 84 1015.0
20260905072220 79 360 4.3 7.8 0.00 0.00 0.00 84 1015.0
20260905072141 79 360 4.3 7.8 0.00 0.00 0.00 84 1015.1
20260905072040 79 360 5.2 7.8 0.00 0.00 0.00 84 1015.0
20260905071941 79 360 5.2 7.8 0.00 0.00 0.00 84 1015.0
20260905071821 79 360 4.3 7.8 0.00 0.00 0.00 84 1015.0
20260905071721 79 360 4.3 7.0 0.00 0.00 0.00 84 1015.0
20260905071627 79 360 3.5 7.0 0.00 0.00 0.00 84 1015.1
20260905071528 79 360 3.5 5.2 0.00 0.00 0.00 84 1015.1
20260905071430 79 360 2.6 7.0 0.00 0.00 0.00 84 1015.1
20260905071331 79 360 3.5 7.0 0.00 0.00 0.00 84 1015.1
20260905071231 79 360 2.6 7.0 0.00 0.00 0.00 84 1015.1
20260905071132 79 360 3.5 7.0 0.00 0.00 0.00 84 1015.1
20260905071018 79 360 3.5 7.0 0.00 0.00 0.00 84 1015.1
20260905070919 79 360 2.6 7.0 0.00 0.00 0.00 84 1015.1
20260905070819 79 360 2.6 7.8 0.00 0.00 0.00 84 1015.1
20260905070720 79 360 3.5 7.8 0.00 0.00 0.00 84 1015.0
20260905070621 79 360 3.5 7.8 0.00 0.00 0.00 84 1015.1
20260905070521 79 360 3.5 7.8 0.00 0.00 0.00 84 1015.0
20260905070426 79 360 2.6 7.8 0.00 0.00 0.00 83 1015.0
20260905070327 79 360 2.6 8.7 0.00 0.00 0.00 83 1015.1
20260905070247 79 360 3.5 8.7 0.00 0.00 0.00 83 1015.0
20260905070126 79 360 3.5 8.7 0.00 0.00 0.00 83 1015.1
20260905070026 79 360 3.5 8.7 0.00 0.00 0.00 83 1015.0
20260905065927 79 360 3.5 8.7 0.00 0.00 0.00 83 1015.0
20260905065829 79 360 2.6 8.7 0.00 0.00 0.00 83 1015.1
20260905065732 79 360 1.7 8.7 0.00 0.00 0.00 83 1015.0
20260905065632 80 360 3.5 8.7 0.00 0.00 0.00 83 1015.0
20260905065533 80 360 3.5 8.7 0.00 0.00 0.00 83 1015.1
20260905065429 80 360 3.5 8.7 0.00 0.00 0.00 83 1015.0
20260905065330 80 360 3.5 7.0 0.00 0.00 0.00 83 1015.0
20260905065231 80 360 3.5 7.8 0.00 0.00 0.00 83 1015.2
20260905065117 80 360 3.5 7.8 0.00 0.00 0.00 83 1015.2
20260905065038 80 360 3.5 7.8 0.00 0.00 0.00 83 1015.1
20260905064918 80 360 3.5 7.8 0.00 0.00 0.00 83 1015.2
20260905064818 80 360 3.5 8.7 0.00 0.00 0.00 83 1015.1
20260905064719 80 360 4.3 8.7 0.00 0.00 0.00 83 1015.2
20260905064639 80 360 4.3 8.7 0.00 0.00 0.00 83 1015.1
20260905064600 80 360 4.3 10.4 0.00 0.00 0.00 83 1015.1
20260905064419 80 360 4.3 10.4 0.00 0.00 0.00 83 1015.1
20260905064323 80 360 4.3 10.4 0.00 0.00 0.00 83 1015.1
20260905064223 80 360 4.3 10.4 0.00 0.00 0.00 83 1015.1
20260905064123 80 360 4.3 10.4 0.00 0.00 0.00 82 1015.1
20260905064024 80 360 5.2 10.4 0.00 0.00 0.00 82 1015.1
20260905063945 80 360 5.2 10.4 0.00 0.00 0.00 82 1015.1
20260905063824 80 360 5.2 10.4 0.00 0.00 0.00 82 1015.1
20260905063725 80 360 6.1 10.4 0.00 0.00 0.00 82 1015.1
20260905063630 80 360 6.1 10.4 0.00 0.00 0.00 82 1015.1
20260905063531 80 360 5.2 9.6 0.00 0.00 0.00 82 1015.1
20260905063450 80 360 5.2 9.6 0.00 0.00 0.00 82 1015.1
20260905063329 80 360 4.3 9.6 0.00 0.00 0.00 82 1015.0
20260905063230 80 360 5.2 9.6 0.00 0.00 0.00 82 1015.0
20260905063150 80 360 6.1 9.6 0.00 0.00 0.00 82 1015.1
20260905063029 80 360 6.1 9.6 0.00 0.00 0.00 82 1015.0
20260905062929 80 360 5.2 9.6 0.00 0.00 0.00 82 1015.1
20260905062835 80 360 5.2 9.6 0.00 0.00 0.00 82 1015.1
20260905062755 80 360 4.3 9.6 0.00 0.00 0.00 82 1015.1
20260905062635 80 360 4.3 10.4 0.00 0.00 0.00 82 1015.1
20260905062516 80 360 4.3 10.4 0.00 0.00 0.00 82 1015.1
20260905062438 80 360 5.2 10.4 0.00 0.00 0.00 82 1015.1
20260905062317 80 360 5.2 10.4 0.00 0.00 0.00 82 1015.1
20260905062217 80 360 6.1 10.4 0.00 0.00 0.00 82 1015.0
20260905062120 80 360 6.1 10.4 0.00 0.00 0.00 82 1015.1
20260905062021 80 360 5.2 10.4 0.00 0.00 0.00 82 1015.1
20260905061921 80 360 5.2 10.4 0.00 0.00 0.00 82 1015.1
20260905061821 80 360 4.3 7.8 0.00 0.00 0.00 82 1015.1
20260905061721 80 360 4.3 8.7 0.00 0.00 0.00 82 1015.1
20260905061622 80 360 5.2 8.7 0.00 0.00 0.00 82 1015.1
20260905061543 80 360 5.2 8.7 0.00 0.00 0.00 82 1015.2
20260905061442 80 360 4.3 8.7 0.00 0.00 0.00 82 1015.1
20260905061326 80 360 4.3 8.7 0.00 0.00 0.00 81 1015.2
20260905061226 80 360 4.3 8.7 0.00 0.00 0.00 81 1015.2
20260905061126 80 360 5.2 9.6 0.00 0.00 0.00 81 1015.1
20260905061027 80 360 4.3 9.6 0.00 0.00 0.00 81 1015.2
20260905060949 80 360 5.2 9.6 0.00 0.00 0.00 81 1015.1
20260905060828 80 360 4.3 9.6 0.00 0.00 0.00 81 1015.2
20260905060730 80 360 4.3 9.6 0.00 0.00 0.00 81 1015.1
20260905060635 80 360 4.3 10.4 0.00 0.00 0.00 81 1015.1
20260905060534 80 360 5.2 10.4 0.00 0.00 0.00 81 1015.1
20260905060455 80 360 5.2 10.4 0.00 0.00 0.00 81 1015.1
20260905060334 80 360 6.1 10.4 0.00 0.00 0.00 81 1015.1
20260905060235 80 360 5.2 10.4 0.00 0.00 0.00 81 1015.0
20260905060136 80 360 5.2 10.4 0.00 0.00 0.00 81 1015.1
20260905060055 80 360 5.2 10.4 0.00 0.00 0.00 81 1015.1
20260905055920 80 360 6.1 10.4 0.00 0.00 0.00 81 1015.1
20260905055841 80 360 6.1 10.4 0.00 0.00 0.00 81 1015.1
20260905055720 80 360 5.2 9.6 0.00 0.00 0.00 81 1015.1
20260905055620 80 360 5.2 9.6 0.00 0.00 0.00 81 1015.1
20260905055520 80 360 6.1 9.6 0.00 0.00 0.00 81 1015.1
20260905055421 80 360 6.1 9.6 0.00 0.00 0.00 81 1015.1
20260905055322 80 360 5.2 9.6 0.00 0.00 0.00 81 1015.1
20260905055242 80 360 5.2 9.6 0.00 0.00 0.00 81 1015.1
20260905055126 80 360 5.2 9.6 0.00 0.00 0.00 81 1015.1
20260905055028 80 360 6.1 9.6 0.00 0.00 0.00 81 1015.2
20260905054930 80 360 6.1 9.6 0.00 0.00 0.00 81 1015.2
20260905054830 80 360 6.1 9.6 0.00 0.00 0.00 81 1015.1
20260905054731 80 360 7.0 9.6 0.00 0.00 0.00 81 1015.1
20260905054651 80 360 6.1 9.6 0.00 0.00 0.00 81 1015.1
20260905054530 80 360 5.2 8.7 0.00 0.00 0.00 81 1015.2
20260905054451 80 360 5.2 8.7 0.00 0.00 0.00 80 1015.1
20260905054355 80 360 6.1 8.7 0.00 0.00 0.00 80 1015.1
20260905054233 80 360 6.1 8.7 0.00 0.00 0.00 80 1015.1
20260905054134 80 360 5.2 10.4 0.00 0.00 0.00 80 1015.1
20260905054015 80 360 4.3 10.4 0.00 0.00 0.00 80 1015.2
20260905053916 80 360 5.2 10.4 0.00 0.00 0.00 80 1015.1
20260905053816 80 360 5.2 10.4 0.00 0.00 0.00 80 1015.1
20260905053721 81 360 5.2 10.4 0.00 0.00 0.00 80 1015.1
20260905053622 81 360 6.1 10.4 0.00 0.00 0.00 80 1015.1
20260905053523 81 360 6.1 10.4 0.00 0.00 0.00 80 1015.1
20260905053423 81 360 7.0 10.4 0.00 0.00 0.00 80 1015.1
20260905053343 81 360 7.0 10.4 0.00 0.00 0.00 80 1015.0
20260905053223 81 360 7.0 10.4 0.00 0.00 0.00 80 1015.0
20260905053124 81 360 7.0 10.4 0.00 0.00 0.00 80 1015.1
20260905053029 81 360 7.0 9.6 0.00 0.00 0.00 80 1015.1
20260905052930 81 360 7.0 9.6 0.00 0.00 0.00 80 1015.1
20260905052832 81 360 6.1 9.6 0.00 0.00 0.00 80 1015.1
20260905052731 81 360 5.2 9.6 0.00 0.00 0.00 79 1015.1
20260905052632 81 360 5.2 9.6 0.00 0.00 0.00 79 1015.1
20260905052533 81 360 6.1 11.3 0.00 0.00 0.00 79 1015.1
20260905052419 81 360 6.1 11.3 0.00 0.00 0.00 79 1015.1
20260905052318 81 360 5.2 11.3 0.00 0.00 0.00 79 1015.2
20260905052219 81 360 6.1 11.3 0.00 0.00 0.00 79 1015.2
20260905052120 81 360 6.1 11.3 0.00 0.00 0.00 79 1015.2
20260905052020 81 360 6.1 11.3 0.00 0.00 0.00 79 1015.2
20260905051920 81 360 6.1 11.3 0.00 0.00 0.00 79 1015.2
20260905051841 81 360 6.1 11.3 0.00 0.00 0.00 79 1015.2
20260905051724 81 360 6.1 11.3 0.00 0.00 0.00 79 1015.2
20260905051645 81 360 6.1 10.4 0.00 0.00 0.00 79 1015.3
20260905051524 81 360 5.2 8.7 0.00 0.00 0.00 79 1015.3
20260905051425 81 360 5.2 8.7 0.00 0.00 0.00 79 1015.2
20260905051326 81 360 4.3 8.7 0.00 0.00 0.00 79 1015.3
20260905051226 81 360 4.3 8.7 0.00 0.00 0.00 79 1015.3
20260905051127 81 360 4.3 10.4 0.00 0.00 0.00 79 1015.3
20260905051026 81 360 5.2 10.4 0.00 0.00 0.00 79 1015.3
20260905050930 81 360 5.2 10.4 0.00 0.00 0.00 79 1015.3
20260905050830 81 360 5.2 10.4 0.00 0.00 0.00 79 1015.3
20260905050730 81 360 4.3 10.4 0.00 0.00 0.00 78 1015.2
20260905050651 81 360 5.2 10.4 0.00 0.00 0.00 78 1015.2
20260905050530 81 360 5.2 10.4 0.00 0.00 0.00 78 1015.3
20260905050431 81 360 6.1 10.4 0.00 0.00 0.00 78 1015.2
20260905050330 81 360 6.1 10.4 0.00 0.00 0.00 78 1015.2
20260905050231 81 360 6.1 11.3 0.00 0.00 0.00 78 1015.2
20260905050115 81 360 5.2 11.3 0.00 0.00 0.00 78 1015.2
20260905050036 81 360 5.2 11.3 0.00 0.00 0.00 78 1015.2
20260905045930 81 360 4.3 11.3 0.00 0.00 0.00 78 1015.3
20260905045832 81 360 5.2 11.3 0.00 0.00 0.00 78 1015.2
20260905045751 81 360 6.1 11.3 0.00 0.00 0.00 78 1015.3
20260905045630 81 360 7.0 11.3 0.00 0.00 0.00 78 1015.3
20260905045531 81 360 7.0 11.3 0.00 0.00 0.00 78 1015.3
20260905045435 81 360 7.0 11.3 0.00 0.00 0.00 78 1015.2
20260905045316 81 360 5.2 11.3 0.00 0.00 0.00 78 1015.2
20260905045217 81 360 4.3 11.3 0.00 0.00 0.00 78 1015.2
20260905045117 81 360 4.3 11.3 0.00 0.00 0.00 77 1015.1
20260905045018 81 360 3.5 9.6 0.00 0.00 0.00 77 1015.1
20260905044939 81 360 4.3 11.3 0.00 0.00 0.00 77 1015.1
20260905044823 82 360 4.3 11.3 0.00 0.00 0.00 77 1015.2
20260905044723 82 360 5.2 11.3 0.00 0.00 0.00 77 1015.1
20260905044623 82 360 6.1 11.3 0.00 0.00 0.00 77 1015.1
20260905044545 82 360 7.0 11.3 0.00 0.00 0.00 77 1015.1
20260905044424 82 360 7.0 11.3 0.00 0.00 0.00 77 1015.1
20260905044325 82 360 7.0 11.3 0.00 0.00 0.00 77 1015.1
20260905044226 82 360 7.0 11.3 0.00 0.00 0.00 77 1015.1
20260905044146 82 360 7.0 13.0 0.00 0.00 0.00 77 1015.1
20260905044030 82 360 7.0 13.0 0.00 0.00 0.00 76 1015.1
20260905043930 82 360 6.1 15.6 0.00 0.00 0.00 76 1015.0
20260905043832 82 360 7.0 15.6 0.00 0.00 0.00 76 1015.1
20260905043732 82 360 7.0 15.6 0.00 0.00 0.00 76 1015.1
20260905043632 82 360 7.8 15.6 0.00 0.00 0.00 76 1015.1
20260905043532 82 360 6.1 15.6 0.00 0.00 0.00 76 1015.1
20260905043454 82 360 6.1 15.6 0.00 0.00 0.00 76 1015.2
20260905043317 82 360 8.7 15.6 0.00 0.00 0.00 76 1015.2
20260905043218 82 360 8.7 15.6 0.00 0.00 0.00 76 1015.1
20260905043119 82 360 8.7 15.6 0.00 0.00 0.00 76 1015.2
20260905043018 82 360 7.0 13.9 0.00 0.00 0.00 76 1015.2
20260905042920 82 360 6.1 9.6 0.00 0.00 0.00 76 1015.2
20260905042823 82 360 6.1 9.6 0.00 0.00 0.00 76 1015.2
20260905042722 82 360 6.1 11.3 0.00 0.00 0.00 76 1015.2
20260905042627 82 360 6.1 11.3 0.00 0.00 0.00 76 1015.2
20260905042528 82 360 6.1 11.3 0.00 0.00 0.00 76 1015.1
20260905042429 82 360 7.0 11.3 0.00 0.00 0.00 76 1015.1
20260905042330 82 360 7.0 11.3 0.00 0.00 0.00 76 1015.1
20260905042230 82 360 6.1 11.3 0.00 0.00 0.00 76 1015.1
20260905042150 82 360 7.0 12.2 0.00 0.00 0.00 76 1015.1
20260905042029 82 360 7.0 12.2 0.00 0.00 0.00 75 1015.0
20260905041934 82 360 7.0 12.2 0.00 0.00 0.00 75 1015.0
20260905041833 82 360 5.2 14.8 0.00 0.00 0.00 75 1015.0
20260905041734 82 360 4.3 14.8 0.00 0.00 0.00 76 1015.0
20260905041634 82 360 5.2 14.8 0.00 0.00 0.00 76 1015.1
20260905041535 82 360 7.0 14.8 0.00 0.00 0.00 75 1015.0
20260905041435 82 360 7.8 14.8 0.00 0.00 0.00 75 1015.0
20260905041320 82 360 8.7 14.8 0.00 0.00 0.00 75 1015.0
20260905041221 82 360 7.8 14.8 0.00 0.00 0.00 75 1015.1
20260905041123 82 360 7.0 14.8 0.00 0.00 0.00 75 1015.0
20260905041024 82 360 7.0 14.8 0.00 0.00 0.00 75 1015.1
20260905040924 82 360 6.1 12.2 0.00 0.00 0.00 75 1015.1
20260905040825 82 360 7.8 12.2 0.00 0.00 0.00 75 1015.1
20260905040725 82 360 7.8 14.8 0.00 0.00 0.00 75 1015.1
20260905040628 82 360 7.0 14.8 0.00 0.00 0.00 75 1015.1
20260905040529 82 360 7.0 14.8 0.00 0.00 0.00 75 1015.1
20260905040430 82 360 6.1 14.8 0.00 0.00 0.00 75 1015.1
20260905040330 82 360 6.1 14.8 0.00 0.00 0.00 75 1015.1
20260905040232 82 360 7.8 14.8 0.00 0.00 0.00 75 1015.1
20260905040131 82 360 7.8 14.8 0.00 0.00 0.00 75 1015.2
20260905040016 82 360 7.8 14.8 0.00 0.00 0.00 75 1015.1
20260905035917 82 360 7.0 14.8 0.00 0.00 0.00 75 1015.2
20260905035817 82 360 6.1 14.8 0.00 0.00 0.00 75 1015.1
20260905035738 82 360 6.1 14.8 0.00 0.00 0.00 74 1015.2
20260905035616 82 360 7.0 14.8 0.00 0.00 0.00 75 1015.1
20260905035518 83 360 7.8 14.8 0.00 0.00 0.00 74 1015.1
20260905035419 83 360 7.8 14.8 0.00 0.00 0.00 74 1015.1
20260905035340 83 360 7.8 14.8 0.00 0.00 0.00 74 1015.0
20260905035224 83 360 8.7 14.8 0.00 0.00 0.00 74 1015.0
20260905035124 83 360 7.8 14.8 0.00 0.00 0.00 74 1015.1
20260905035045 82 360 7.8 14.8 0.00 0.00 0.00 74 1015.0
20260905034924 83 360 7.0 10.4 0.00 0.00 0.00 74 1015.1
20260905034824 83 360 7.0 11.3 0.00 0.00 0.00 74 1015.1
20260905034725 83 360 7.0 11.3 0.00 0.00 0.00 74 1015.1
20260905034624 83 360 7.0 11.3 0.00 0.00 0.00 74 1015.1
20260905034529 83 360 6.1 11.3 0.00 0.00 0.00 74 1015.1
20260905034451 83 360 6.1 11.3 0.00 0.00 0.00 74 1015.1
20260905034331 83 360 7.0 11.3 0.00 0.00 0.00 74 1015.0
20260905034231 83 360 7.0 11.3 0.00 0.00 0.00 74 1015.0
20260905034131 83 360 7.8 11.3 0.00 0.00 0.00 74 1015.0
20260905034032 83 360 7.8 11.3 0.00 0.00 0.00 74 1015.0
20260905033933 83 360 7.0 11.3 0.00 0.00 0.00 74 1015.1
20260905033837 83 360 7.0 11.3 0.00 0.00 0.00 74 1015.1
20260905033717 83 360 7.0 11.3 0.00 0.00 0.00 73 1015.1
20260905033617 83 360 7.8 13.0 0.00 0.00 0.00 73 1015.1
20260905033538 83 360 7.8 13.0 0.00 0.00 0.00 73 1015.0
20260905033417 83 360 7.8 13.0 0.00 0.00 0.00 73 1015.0
20260905033318 83 360 7.8 13.0 0.00 0.00 0.00 73 1015.1
20260905033239 83 360 7.8 13.0 0.00 0.00 0.00 73 1015.0
20260905033119 83 360 7.0 13.0 0.00 0.00 0.00 73 1015.0
20260905033044 83 360 7.0 13.0 0.00 0.00 0.00 73 1015.0
20260905032924 83 360 7.0 13.0 0.00 0.00 0.00 73 1015.1
20260905032826 83 360 7.0 13.0 0.00 0.00 0.00 73 1015.0
20260905032726 83 360 7.0 13.0 0.00 0.00 0.00 73 1014.9
20260905032627 83 360 7.0 13.0 0.00 0.00 0.00 73 1014.9
20260905032549 83 360 7.8 13.0 0.00 0.00 0.00 73 1014.9
20260905032429 83 360 7.8 13.0 0.00 0.00 0.00 73 1015.0
20260905032333 83 360 7.8 13.0 0.00 0.00 0.00 73 1014.8
20260905032253 83 360 8.7 13.0 0.00 0.00 0.00 73 1015.0
20260905032133 83 161 8.7 13.0 0.00 0.00 0.00 73 1014.9
20260905032033 83 360 8.7 12.2 0.00 0.00 0.00 73 1014.9
20260905031933 83 360 7.8 12.2 0.00 0.00 0.00 73 1014.9
20260905031834 83 360 7.0 12.2 0.00 0.00 0.00 73 1014.8
20260905031735 83 360 6.1 12.2 0.00 0.00 0.00 72 1015.3
20260905031619 83 150 5.2 12.2 0.00 0.00 0.00 72 1015.0
20260905031519 83 360 6.1 12.2 0.00 0.00 0.00 72 1015.0
20260905031440 83 360 7.0 12.2 0.00 0.00 0.00 72 1015.0
20260905031320 83 360 7.8 12.2 0.00 0.00 0.00 72 1015.0
20260905031220 83 360 8.7 12.2 0.00 0.00 0.00 72 1014.9
20260905031121 83 360 7.8 12.2 0.00 0.00 0.00 72 1014.9
20260905031022 83 360 7.0 12.2 0.00 0.00 0.00 72 1014.9
20260905030925 83 360 7.0 12.2 0.00 0.00 0.00 72 1015.0
20260905030826 83 360 7.0 12.2 0.00 0.00 0.00 72 1015.0
20260905030727 83 360 7.0 12.2 0.00 0.00 0.00 72 1014.9
20260905030627 83 360 7.8 12.2 0.00 0.00 0.00 72 1014.9
20260905030528 83 360 8.7 12.2 0.00 0.00 0.00 72 1014.8
20260905030428 83 360 8.7 12.2 0.00 0.00 0.00 72 1014.9
20260905030332 83 360 7.0 12.2 0.00 0.00 0.00 72 1014.9
20260905030233 83 360 6.1 11.3 0.00 0.00 0.00 72 1014.8
20260905030133 83 360 5.2 11.3 0.00 0.00 0.00 71 1014.8
20260905030034 83 360 7.0 11.3 0.00 0.00 0.00 71 1014.9
20260905025934 83 360 7.0 11.3 0.00 0.00 0.00 71 1014.9
20260905025836 83 360 7.8 11.3 0.00 0.00 0.00 71 1014.9
20260905025720 83 360 7.8 11.3 0.00 0.00 0.00 71 1014.8
20260905025640 83 360 7.8 12.2 0.00 0.00 0.00 70 1014.8
20260905025520 83 360 7.8 12.2 0.00 0.00 0.00 70 1014.8
20260905025420 84 360 7.0 12.2 0.00 0.00 0.00 70 1014.7
20260905025320 83 360 7.8 12.2 0.00 0.00 0.00 70 1014.8
20260905025221 83 360 7.8 12.2 0.00 0.00 0.00 70 1014.7
20260905025121 84 360 7.8 12.2 0.00 0.00 0.00 70 1014.7
20260905025025 83 360 7.8 12.2 0.00 0.00 0.00 70 1014.7
20260905024926 83 360 7.8 12.2 0.00 0.00 0.00 70 1014.7
20260905024829 83 360 8.7 12.2 0.00 0.00 0.00 70 1014.7
20260905024728 83 360 7.8 10.4 0.00 0.00 0.00 70 1014.7
20260905024629 83 360 7.0 10.4 0.00 0.00 0.00 70 1014.7
20260905024528 83 360 6.1 10.4 0.00 0.00 0.00 70 1014.7
20260905024429 83 360 5.2 9.6 0.00 0.00 0.00 69 1014.7
20260905024334 83 360 6.1 9.6 0.00 0.00 0.00 69 1014.7
20260905024255 83 360 6.1 9.6 0.00 0.00 0.00 69 1014.6
20260905024135 83 360 5.2 7.8 0.00 0.00 0.00 69 1014.6
20260905024034 83 360 4.3 7.8 0.00 0.00 0.00 69 1014.5
20260905023934 83 360 3.5 5.2 0.00 0.00 0.00 69 1014.6
20260905023833 83 360 3.5 5.2 0.00 0.00 0.00 69 1014.6
20260905023735 83 360 2.6 5.2 0.00 0.00 0.00 69 1014.6
20260905023633 83 360 2.6 5.2 0.00 0.00 0.00 69 1014.7
20260905023518 83 360 2.6 5.2 0.00 0.00 0.00 69 1014.7
20260905023419 83 360 2.6 5.2 0.00 0.00 0.00 69 1014.6
20260905023319 83 360 2.6 5.2 0.00 0.00 0.00 69 1014.6
20260905023219 83 360 2.6 5.2 0.00 0.00 0.00 69 1014.7
20260905023118 83 360 2.6 5.2 0.00 0.00 0.00 69 1014.6
20260905023040 83 360 2.6 5.2 0.00 0.00 0.00 69 1014.6
20260905022939 83 360 2.6 5.2 0.00 0.00 0.00 69 1014.6
20260905022819 83 360 2.6 5.2 0.00 0.00 0.00 69 1014.6
20260905022723 83 360 2.6 4.3 0.00 0.00 0.00 69 1014.5
20260905022624 83 360 2.6 4.3 0.00 0.00 0.00 69 1014.5
20260905022524 84 360 2.6 5.2 0.00 0.00 0.00 69 1014.5
20260905022425 84 360 2.6 5.2 0.00 0.00 0.00 68 1014.5
20260905022345 84 360 2.6 5.2 0.00 0.00 0.00 68 1014.5
20260905022224 84 360 2.6 5.2 0.00 0.00 0.00 68 1014.4
20260905022126 84 360 2.6 5.2 0.00 0.00 0.00 68 1014.4
20260905022030 84 360 2.6 5.2 0.00 0.00 0.00 68 1014.4
20260905021930 84 360 2.6 5.2 0.00 0.00 0.00 68 1014.3
20260905021831 84 360 2.6 5.2 0.00 0.00 0.00 68 1014.3
20260905021732 84 360 2.6 5.2 0.00 0.00 0.00 68 1014.3
20260905021632 84 360 2.6 4.3 0.00 0.00 0.00 68 1014.3
20260905021552 84 360 2.6 5.2 0.00 0.00 0.00 68 1014.3
20260905021417 84 360 2.6 5.2 0.00 0.00 0.00 68 1014.3
20260905021318 84 360 2.6 5.2 0.00 0.00 0.00 68 1014.3
20260905021238 84 360 2.6 5.2 0.00 0.00 0.00 68 1014.3
20260905021118 84 360 3.5 5.2 0.00 0.00 0.00 68 1014.3
20260905021038 84 360 3.5 5.2 0.00 0.00 0.00 68 1014.2
20260905020918 84 161 3.5 7.8 0.00 0.00 0.00 68 1014.2
20260905020839 84 360 3.5 7.8 0.00 0.00 0.00 68 1014.2
20260905020719 84 360 3.5 7.8 0.00 0.00 0.00 68 1014.2
20260905020623 84 360 2.6 7.8 0.00 0.00 0.00 68 1014.1
20260905020523 84 360 2.6 7.8 0.00 0.00 0.00 67 1014.1
20260905020423 84 360 2.6 8.7 0.00 0.00 0.00 67 1014.0
20260905020323 84 360 3.5 8.7 0.00 0.00 0.00 67 1014.1
20260905020224 84 360 3.5 8.7 0.00 0.00 0.00 67 1014.0
20260905020125 84 360 3.5 8.7 0.00 0.00 0.00 67 1014.0
20260905020026 84 360 4.3 8.7 0.00 0.00 0.00 67 1014.0
20260905015927 84 360 4.3 8.7 0.00 0.00 0.00 67 1014.0
20260905015853 84 360 5.2 9.6 0.00 0.00 0.00 67 1014.0
20260905015732 84 360 5.2 9.6 0.00 0.00 0.00 67 1014.0
20260905015631 84 360 5.2 9.6 0.00 0.00 0.00 67 1014.0
20260905015532 84 360 4.3 10.4 0.00 0.00 0.00 67 1014.1
20260905015433 84 360 5.2 10.4 0.00 0.00 0.00 67 1014.2
20260905015333 84 360 5.2 10.4 0.00 0.00 0.00 66 1014.1
20260905015218 85 360 6.1 10.4 0.00 0.00 0.00 66 1014.1
20260905015119 85 360 6.1 10.4 0.00 0.00 0.00 66 1014.1
20260905015019 85 360 6.1 10.4 0.00 0.00 0.00 66 1014.1
20260905014921 85 360 6.1 10.4 0.00 0.00 0.00 66 1014.1
20260905014821 85 360 7.0 10.4 0.00 0.00 0.00 66 1014.2
20260905014721 85 360 7.0 10.4 0.00 0.00 0.00 66 1014.1
20260905014642 85 360 6.1 10.4 0.00 0.00 0.00 66 1014.1
20260905014542 85 360 5.2 10.4 0.00 0.00 0.00 66 1014.1
20260905014426 85 360 5.2 10.4 0.00 0.00 0.00 66 1014.0
20260905014327 85 360 6.1 10.4 0.00 0.00 0.00 66 1014.1
20260905014247 85 360 6.1 10.4 0.00 0.00 0.00 66 1014.0
20260905014147 85 360 5.2 9.6 0.00 0.00 0.00 66 1014.0
20260905014046 85 360 5.2 9.6 0.00 0.00 0.00 66 1014.0
20260905013925 85 360 5.2 9.6 0.00 0.00 0.00 66 1014.0
20260905013826 85 360 6.1 10.4 0.00 0.00 0.00 66 1014.0
20260905013727 85 360 7.0 10.4 0.00 0.00 0.00 66 1014.0
20260905013632 85 360 7.0 10.4 0.00 0.00 0.00 66 1013.9
20260905013533 85 360 7.0 11.3 0.00 0.00 0.00 66 1013.9
20260905013454 85 360 7.0 11.3 0.00 0.00 0.00 66 1014.0
20260905013335 85 360 7.0 11.3 0.00 0.00 0.00 66 1014.0
20260905013235 85 360 7.0 11.3 0.00 0.00 0.00 66 1013.9
20260905013156 85 360 7.8 12.2 0.00 0.00 0.00 66 1013.9